Wetterdaten: Sonntag, 05.04.2020
Datum Zeit Temp. Aussen Temp. o. S. Temp +5cm Feuchte Auss Luftdruck Regen Sonnenschein Regendauer Solar Windben Empfang
05.04.2020 00:00 6,8 C 5,0 C 3,3 C 68 % 1024,2 hPa 0,0 l/m 0 min 0 min 0 W/m 0,0 km/h (0 Bft) 95,74 %
05.04.2020 00:02 6,8 C 4,4 C 3,3 C 68 % 1024,2 hPa 0,0 l/m 0 min 0 min 0 W/m 0,0 km/h (0 Bft) 91,43 %
05.04.2020 00:04 6,7 C 4,4 C 3,3 C 68 % 1024,2 hPa 0,0 l/m 0 min 0 min 0 W/m 0,0 km/h (0 Bft) 95,74 %
05.04.2020 00:08 6,6 C 4,4 C 3,3 C 69 % 1024,2 hPa 0,0 l/m 0 min 0 min 0 W/m 0,0 km/h (0 Bft) 98,92 %
05.04.2020 00:10 6,6 C 4,4 C 3,3 C 69 % 1024,2 hPa 0,0 l/m 0 min 0 min 0 W/m 0,0 km/h (0 Bft) 100,00 %
05.04.2020 00:12 6,5 C 4,4 C 3,3 C 69 % 1024,3 hPa 0,0 l/m 0 min 0 min 0 W/m 0,0 km/h (0 Bft) 100,00 %
05.04.2020 00:14 6,5 C 4,4 C 3,3 C 69 % 1024,3 hPa 0,0 l/m 0 min 0 min 0 W/m 0,0 km/h (0 Bft) 95,74 %
05.04.2020 00:16 6,4 C 4,4 C 3,3 C 69 % 1024,2 hPa 0,0 l/m 0 min 0 min 0 W/m 0,0 km/h (0 Bft) 95,74 %
05.04.2020 00:18 6,4 C 4,4 C 2,8 C 69 % 1024,3 hPa 0,0 l/m 0 min 0 min 0 W/m 0,0 km/h (0 Bft) 100,00 %
05.04.2020 00:20 6,3 C 4,4 C 2,8 C 69 % 1024,3 hPa 0,0 l/m 0 min 0 min 0 W/m 0,0 km/h (0 Bft) 97,83 %
05.04.2020 00:22 6,3 C 4,4 C 2,8 C 70 % 1024,2 hPa 0,0 l/m 0 min 0 min 0 W/m 0,0 km/h (0 Bft) 100,00 %
05.04.2020 00:24 6,3 C 4,4 C 2,8 C 69 % 1024,2 hPa 0,0 l/m 0 min 0 min 0 W/m 0,0 km/h (0 Bft) 100,00 %
05.04.2020 00:26 6,2 C 4,4 C 2,8 C 70 % 1024,3 hPa 0,0 l/m 0 min 0 min 0 W/m 0,0 km/h (0 Bft) 97,87 %
05.04.2020 00:28 6,2 C 4,4 C 2,8 C 70 % 1024,3 hPa 0,0 l/m 0 min 0 min 0 W/m 0,0 km/h (0 Bft) 100,00 %
05.04.2020 00:30 6,1 C 4,4 C 2,8 C 70 % 1024,3 hPa 0,0 l/m 0 min 0 min 0 W/m 0,0 km/h (0 Bft) 100,00 %
05.04.2020 00:32 6,1 C 4,4 C 2,8 C 70 % 1024,3 hPa 0,0 l/m 0 min 0 min 0 W/m 0,0 km/h (0 Bft) 100,00 %
05.04.2020 00:34 6,1 C 3,9 C 2,8 C 70 % 1024,3 hPa 0,0 l/m 0 min 0 min 0 W/m 0,0 km/h (0 Bft) 100,00 %
05.04.2020 00:36 6,0 C 3,9 C 2,8 C 70 % 1024,3 hPa 0,0 l/m 0 min 0 min 0 W/m 0,0 km/h (0 Bft) 100,00 %
05.04.2020 00:38 5,9 C 3,9 C 2,8 C 70 % 1024,3 hPa 0,0 l/m 0 min 0 min 0 W/m 0,0 km/h (0 Bft) 97,87 %
05.04.2020 00:40 5,9 C 3,9 C 2,8 C 70 % 1024,4 hPa 0,0 l/m 0 min 0 min 0 W/m 0,0 km/h (0 Bft) 100,00 %
05.04.2020 00:42 5,9 C 3,9 C 2,8 C 71 % 1024,4 hPa 0,0 l/m 0 min 0 min 0 W/m 0,0 km/h (0 Bft) 100,00 %
05.04.2020 00:44 5,8 C 3,9 C 2,8 C 71 % 1024,3 hPa 0,0 l/m 0 min 0 min 0 W/m 0,0 km/h (0 Bft) 97,87 %
05.04.2020 00:46 5,8 C 3,9 C 2,8 C 71 % 1024,3 hPa 0,0 l/m 0 min 0 min 0 W/m 0,0 km/h (0 Bft) 100,00 %
05.04.2020 00:48 5,7 C 3,9 C 2,8 C 71 % 1024,4 hPa 0,0 l/m 0 min 0 min 0 W/m 0,0 km/h (0 Bft) 100,00 %
05.04.2020 00:50 5,7 C 3,9 C 2,8 C 71 % 1024,3 hPa 0,0 l/m 0 min 0 min 0 W/m 0,0 km/h (0 Bft) 100,00 %
05.04.2020 00:52 5,7 C 3,9 C 2,2 C 72 % 1024,4 hPa 0,0 l/m 0 min 0 min 0 W/m 0,0 km/h (0 Bft) 100,00 %
05.04.2020 00:54 5,6 C 3,9 C 2,2 C 72 % 1024,3 hPa 0,0 l/m 0 min 0 min 0 W/m 0,0 km/h (0 Bft) 100,00 %
05.04.2020 00:56 5,6 C 3,9 C 2,2 C 72 % 1024,3 hPa 0,0 l/m 0 min 0 min 0 W/m 0,0 km/h (0 Bft) 100,00 %
05.04.2020 00:58 5,5 C 3,9 C 2,2 C 72 % 1024,3 hPa 0,0 l/m 0 min 0 min 0 W/m 0,0 km/h (0 Bft) 100,00 %
05.04.2020 01:00 5,5 C 3,9 C 2,2 C 72 % 1024,3 hPa 0,0 l/m 0 min 0 min 0 W/m 0,0 km/h (0 Bft) 100,00 %
05.04.2020 01:02 5,4 C 3,9 C 2,2 C 72 % 1024,3 hPa 0,0 l/m 0 min 0 min 0 W/m 0,0 km/h (0 Bft) 100,00 %
05.04.2020 01:04 5,4 C 3,9 C 2,8 C 73 % 1024,3 hPa 0,0 l/m 0 min 0 min 0 W/m 0,0 km/h (0 Bft) 97,87 %
05.04.2020 01:06 5,3 C 3,9 C 2,8 C 73 % 1024,3 hPa 0,0 l/m 0 min 0 min 0 W/m 0,0 km/h (0 Bft) 100,00 %
05.04.2020 01:08 5,3 C 3,9 C 2,8 C 73 % 1024,3 hPa 0,0 l/m 0 min 0 min 0 W/m 0,0 km/h (0 Bft) 97,87 %
05.04.2020 01:10 5,3 C 3,9 C 2,8 C 73 % 1024,3 hPa 0,0 l/m 0 min 0 min 0 W/m 0,0 km/h (0 Bft) 95,74 %
05.04.2020 01:12 5,3 C 3,9 C 2,8 C 74 % 1024,3 hPa 0,0 l/m 0 min 0 min 0 W/m 0,0 km/h (0 Bft) 91,49 %
05.04.2020 01:14 5,2 C 4,4 C 2,8 C 74 % 1024,3 hPa 0,0 l/m 0 min 0 min 0 W/m 0,0 km/h (0 Bft) 95,74 %
05.04.2020 01:16 5,2 C 4,4 C 2,8 C 74 % 1024,3 hPa 0,0 l/m 0 min 0 min 0 W/m 0,0 km/h (0 Bft) 93,62 %
05.04.2020 01:18 5,2 C 4,4 C 2,8 C 75 % 1024,4 hPa 0,0 l/m 0 min 0 min 0 W/m 0,0 km/h (0 Bft) 95,65 %
05.04.2020 01:20 5,2 C 5,0 C 2,8 C 75 % 1024,3 hPa 0,0 l/m 0 min 0 min 0 W/m 0,0 km/h (0 Bft) 97,87 %
05.04.2020 01:22 5,2 C 5,0 C 2,8 C 76 % 1024,3 hPa 0,0 l/m 0 min 0 min 0 W/m 0,0 km/h (0 Bft) 93,62 %
05.04.2020 01:24 5,2 C 5,6 C 3,3 C 76 % 1024,3 hPa 0,0 l/m 0 min 0 min 0 W/m 0,0 km/h (0 Bft) 93,62 %
05.04.2020 01:26 5,4 C 6,1 C 4,4 C 77 % 1024,3 hPa 0,0 l/m 0 min 0 min 0 W/m 0,0 km/h (0 Bft) 95,74 %
05.04.2020 01:28 5,6 C 6,7 C 4,4 C 77 % 1024,3 hPa 0,0 l/m 0 min 0 min 0 W/m 0,0 km/h (0 Bft) 95,65 %
05.04.2020 01:30 5,8 C 6,7 C 5,0 C 77 % 1024,3 hPa 0,0 l/m 0 min 0 min 0 W/m 0,0 km/h (0 Bft) 95,74 %
05.04.2020 01:32 5,9 C 6,7 C 5,6 C 77 % 1024,2 hPa 0,0 l/m 0 min 0 min 0 W/m 0,0 km/h (0 Bft) 91,49 %
05.04.2020 01:34 6,1 C 7,2 C 5,6 C 76 % 1024,2 hPa 0,0 l/m 0 min 0 min 0 W/m 12,9 km/h (3 Bft) 95,74 %
05.04.2020 01:36 6,2 C 7,2 C 5,6 C 76 % 1024,3 hPa 0,0 l/m 0 min 0 min 0 W/m 3,2 km/h (1 Bft) 93,62 %
05.04.2020 01:38 6,4 C 7,2 C 5,6 C 75 % 1024,3 hPa 0,0 l/m 0 min 0 min 0 W/m 6,4 km/h (2 Bft) 95,74 %
05.04.2020 01:40 6,5 C 6,7 C 5,6 C 75 % 1024,3 hPa 0,0 l/m 0 min 0 min 0 W/m 3,2 km/h (1 Bft) 93,48 %
05.04.2020 01:42 6,5 C 6,7 C 5,6 C 75 % 1024,3 hPa 0,0 l/m 0 min 0 min 0 W/m 0,0 km/h (0 Bft) 95,74 %
05.04.2020 01:44 6,6 C 6,7 C 5,6 C 75 % 1024,4 hPa 0,0 l/m 0 min 0 min 0 W/m 0,0 km/h (0 Bft) 95,74 %
05.04.2020 01:46 6,7 C 6,7 C 5,6 C 75 % 1024,3 hPa 0,0 l/m 0 min 0 min 0 W/m 0,0 km/h (0 Bft) 97,87 %
05.04.2020 01:48 6,8 C 6,7 C 5,6 C 74 % 1024,3 hPa 0,0 l/m 0 min 0 min 0 W/m 0,0 km/h (0 Bft) 97,87 %
05.04.2020 01:50 6,8 C 6,7 C 5,6 C 74 % 1024,3 hPa 0,0 l/m 0 min 0 min 0 W/m 0,0 km/h (0 Bft) 93,62 %
05.04.2020 01:52 6,9 C 6,7 C 5,6 C 74 % 1024,3 hPa 0,0 l/m 0 min 0 min 0 W/m 0,0 km/h (0 Bft) 97,83 %
05.04.2020 01:54 6,9 C 6,7 C 5,0 C 74 % 1024,3 hPa 0,0 l/m 0 min 0 min 0 W/m 0,0 km/h (0 Bft) 95,74 %
05.04.2020 01:56 7,0 C 6,7 C 5,0 C 74 % 1024,3 hPa 0,0 l/m 0 min 0 min 0 W/m 0,0 km/h (0 Bft) 95,74 %
05.04.2020 01:58 7,0 C 6,7 C 5,0 C 73 % 1024,3 hPa 0,0 l/m 0 min 0 min 0 W/m 0,0 km/h (0 Bft) 97,87 %
05.04.2020 02:00 7,1 C 6,7 C 5,0 C 73 % 1024,3 hPa 0,0 l/m 0 min 0 min 0 W/m 0,0 km/h (0 Bft) 95,74 %
05.04.2020 02:02 7,1 C 6,7 C 5,0 C 73 % 1024,3 hPa 0,0 l/m 0 min 0 min 0 W/m 0,0 km/h (0 Bft) 97,87 %
05.04.2020 02:04 7,1 C 6,7 C 5,0 C 73 % 1024,3 hPa 0,0 l/m 0 min 0 min 0 W/m 0,0 km/h (0 Bft) 100,00 %
05.04.2020 02:06 7,1 C 6,7 C 5,0 C 73 % 1024,3 hPa 0,0 l/m 0 min 0 min 0 W/m 0,0 km/h (0 Bft) 100,00 %
05.04.2020 02:08 7,1 C 6,7 C 5,0 C 73 % 1024,2 hPa 0,0 l/m 0 min 0 min 0 W/m 0,0 km/h (0 Bft) 100,00 %
05.04.2020 02:10 7,2 C 6,7 C 4,4 C 73 % 1024,2 hPa 0,0 l/m 0 min 0 min 0 W/m 0,0 km/h (0 Bft) 100,00 %
05.04.2020 02:12 7,2 C 6,7 C 5,0 C 73 % 1024,2 hPa 0,0 l/m 0 min 0 min 0 W/m 0,0 km/h (0 Bft) 97,87 %
05.04.2020 02:14 7,2 C 6,7 C 5,0 C 73 % 1024,2 hPa 0,0 l/m 0 min 0 min 0 W/m 0,0 km/h (0 Bft) 100,00 %
05.04.2020 02:16 7,2 C 6,7 C 4,4 C 73 % 1024,2 hPa 0,0 l/m 0 min 0 min 0 W/m 0,0 km/h (0 Bft) 100,00 %
05.04.2020 02:18 7,2 C 6,7 C 4,4 C 73 % 1024,2 hPa 0,0 l/m 0 min 0 min 0 W/m 0,0 km/h (0 Bft) 100,00 %
05.04.2020 02:20 7,2 C 6,7 C 4,4 C 73 % 1024,2 hPa 0,0 l/m 0 min 0 min 0 W/m 0,0 km/h (0 Bft) 100,00 %
05.04.2020 02:22 7,2 C 6,7 C 4,4 C 73 % 1024,2 hPa 0,0 l/m 0 min 0 min 0 W/m 0,0 km/h (0 Bft) 100,00 %
05.04.2020 02:24 7,2 C 6,7 C 4,4 C 72 % 1024,2 hPa 0,0 l/m 0 min 0 min 0 W/m 0,0 km/h (0 Bft) 95,74 %
05.04.2020 02:26 7,2 C 6,7 C 4,4 C 72 % 1024,1 hPa 0,0 l/m 0 min 0 min 0 W/m 0,0 km/h (0 Bft) 97,83 %
05.04.2020 02:28 7,2 C 6,1 C 4,4 C 72 % 1024,1 hPa 0,0 l/m 0 min 0 min 0 W/m 0,0 km/h (0 Bft) 89,36 %
05.04.2020 02:30 7,2 C 6,1 C 4,4 C 72 % 1024,0 hPa 0,0 l/m 0 min 0 min 0 W/m 0,0 km/h (0 Bft) 63,83 %
05.04.2020 02:32 7,2 C 6,1 C 4,4 C 72 % 1024,0 hPa 0,0 l/m 0 min 0 min 0 W/m 0,0 km/h (0 Bft) 97,87 %
05.04.2020 02:34 7,2 C 6,1 C 4,4 C 72 % 1024,0 hPa 0,0 l/m 0 min 0 min 0 W/m 0,0 km/h (0 Bft) 97,87 %
05.04.2020 02:36 7,2 C 6,7 C 4,4 C 72 % 1024,0 hPa 0,0 l/m 0 min 0 min 0 W/m 0,0 km/h (0 Bft) 97,87 %
05.04.2020 02:38 7,2 C 6,1 C 5,0 C 72 % 1023,9 hPa 0,0 l/m 0 min 0 min 0 W/m 0,0 km/h (0 Bft) 97,83 %
05.04.2020 02:40 7,2 C 6,1 C 4,4 C 72 % 1023,9 hPa 0,0 l/m 0 min 0 min 0 W/m 0,0 km/h (0 Bft) 97,87 %
05.04.2020 02:42 7,1 C 6,1 C 4,4 C 72 % 1023,9 hPa 0,0 l/m 0 min 0 min 0 W/m 0,0 km/h (0 Bft) 97,87 %
05.04.2020 02:44 7,1 C 6,1 C 4,4 C 72 % 1023,9 hPa 0,0 l/m 0 min 0 min 0 W/m 0,0 km/h (0 Bft) 97,87 %
05.04.2020 02:46 7,1 C 6,1 C 3,9 C 72 % 1023,9 hPa 0,0 l/m 0 min 0 min 0 W/m 0,0 km/h (0 Bft) 97,87 %
05.04.2020 02:48 7,1 C 5,6 C 3,9 C 72 % 1023,9 hPa 0,0 l/m 0 min 0 min 0 W/m 0,0 km/h (0 Bft) 93,62 %
05.04.2020 02:50 7,1 C 6,1 C 3,9 C 72 % 1023,8 hPa 0,0 l/m 0 min 0 min 0 W/m 0,0 km/h (0 Bft) 95,65 %
05.04.2020 02:52 7,1 C 6,1 C 3,9 C 72 % 1023,8 hPa 0,0 l/m 0 min 0 min 0 W/m 0,0 km/h (0 Bft) 97,87 %
05.04.2020 02:54 7,1 C 5,6 C 3,9 C 72 % 1023,8 hPa 0,0 l/m 0 min 0 min 0 W/m 0,0 km/h (0 Bft) 97,87 %
05.04.2020 02:56 7,0 C 5,6 C 3,9 C 72 % 1023,8 hPa 0,0 l/m 0 min 0 min 0 W/m 0,0 km/h (0 Bft) 97,87 %
05.04.2020 02:58 7,0 C 6,1 C 3,9 C 73 % 1023,8 hPa 0,0 l/m 0 min 0 min 0 W/m 0,0 km/h (0 Bft) 97,87 %
05.04.2020 03:00 6,9 C 6,1 C 3,9 C 73 % 1023,8 hPa 0,0 l/m 0 min 0 min 0 W/m 0,0 km/h (0 Bft) 97,87 %
05.04.2020 03:02 6,9 C 6,1 C 3,9 C 73 % 1023,8 hPa 0,0 l/m 0 min 0 min 0 W/m 0,0 km/h (0 Bft) 95,65 %
05.04.2020 03:04 6,9 C 6,1 C 4,4 C 73 % 1023,8 hPa 0,0 l/m 0 min 0 min 0 W/m 0,0 km/h (0 Bft) 97,87 %
05.04.2020 03:06 6,9 C 6,1 C 3,9 C 73 % 1023,8 hPa 0,0 l/m 0 min 0 min 0 W/m 0,0 km/h (0 Bft) 97,87 %
05.04.2020 03:08 6,9 C 6,1 C 3,9 C 73 % 1023,8 hPa 0,0 l/m 0 min 0 min 0 W/m 0,0 km/h (0 Bft) 97,87 %
05.04.2020 03:10 6,9 C 6,1 C 3,9 C 73 % 1023,7 hPa 0,0 l/m 0 min 0 min 0 W/m 0,0 km/h (0 Bft) 97,87 %
05.04.2020 03:12 6,8 C 5,6 C 3,9 C 73 % 1023,7 hPa 0,0 l/m 0 min 0 min 0 W/m 0,0 km/h (0 Bft) 95,74 %
05.04.2020 03:14 6,8 C 5,6 C 3,9 C 73 % 1023,7 hPa 0,0 l/m 0 min 0 min 0 W/m 0,0 km/h (0 Bft) 95,65 %
05.04.2020 03:16 6,8 C 5,6 C 3,3 C 73 % 1023,7 hPa 0,0 l/m 0 min 0 min 0 W/m 0,0 km/h (0 Bft) 93,62 %
05.04.2020 03:18 6,8 C 5,0 C 3,3 C 73 % 1023,7 hPa 0,0 l/m 0 min 0 min 0 W/m 0,0 km/h (0 Bft) 95,74 %
05.04.2020 03:20 6,8 C 5,0 C 3,3 C 73 % 1023,7 hPa 0,0 l/m 0 min 0 min 0 W/m 0,0 km/h (0 Bft) 95,74 %
05.04.2020 03:22 6,8 C 5,0 C 3,3 C 73 % 1023,8 hPa 0,0 l/m 0 min 0 min 0 W/m 0,0 km/h (0 Bft) 93,62 %
05.04.2020 03:24 6,7 C 5,0 C 3,3 C 73 % 1023,8 hPa 0,0 l/m 0 min 0 min 0 W/m 0,0 km/h (0 Bft) 95,74 %
05.04.2020 03:26 6,7 C 5,0 C 3,3 C 73 % 1023,8 hPa 0,0 l/m 0 min 0 min 0 W/m 0,0 km/h (0 Bft) 93,48 %
05.04.2020 03:28 6,7 C 5,0 C 3,3 C 73 % 1023,7 hPa 0,0 l/m 0 min 0 min 0 W/m 0,0 km/h (0 Bft) 93,62 %
05.04.2020 03:30 6,6 C 5,0 C 3,3 C 73 % 1023,7 hPa 0,0 l/m 0 min 0 min 0 W/m 0,0 km/h (0 Bft) 95,74 %
05.04.2020 03:32 6,6 C 5,0 C 3,3 C 73 % 1023,7 hPa 0,0 l/m 0 min 0 min 0 W/m 0,0 km/h (0 Bft) 97,87 %
05.04.2020 03:34 6,6 C 5,0 C 3,3 C 73 % 1023,7 hPa 0,0 l/m 0 min 0 min 0 W/m 0,0 km/h (0 Bft) 95,74 %
05.04.2020 03:36 6,5 C 5,0 C 3,3 C 73 % 1023,7 hPa 0,0 l/m 0 min 0 min 0 W/m 0,0 km/h (0 Bft) 97,87 %
05.04.2020 03:38 6,5 C 5,0 C 2,8 C 73 % 1023,7 hPa 0,0 l/m 0 min 0 min 0 W/m 0,0 km/h (0 Bft) 71,74 %
05.04.2020 03:40 6,5 C 5,0 C 2,8 C 73 % 1023,7 hPa 0,0 l/m 0 min 0 min 0 W/m 0,0 km/h (0 Bft) 80,43 %
05.04.2020 03:42 6,4 C 5,0 C 2,8 C 74 % 1023,7 hPa 0,0 l/m 0 min 0 min 0 W/m 0,0 km/h (0 Bft) 97,87 %
05.04.2020 03:44 6,4 C 4,4 C 2,8 C 74 % 1023,7 hPa 0,0 l/m 0 min 0 min 0 W/m 0,0 km/h (0 Bft) 100,00 %
05.04.2020 03:46 6,3 C 4,4 C 2,8 C 74 % 1023,7 hPa 0,0 l/m 0 min 0 min 0 W/m 0,0 km/h (0 Bft) 95,74 %
05.04.2020 03:48 6,3 C 4,4 C 2,8 C 74 % 1023,7 hPa 0,0 l/m 0 min 0 min 0 W/m 0,0 km/h (0 Bft) 100,00 %
05.04.2020 03:50 6,3 C 4,4 C 2,8 C 74 % 1023,6 hPa 0,0 l/m 0 min 0 min 0 W/m 0,0 km/h (0 Bft) 100,00 %
05.04.2020 03:52 6,2 C 4,4 C 2,8 C 74 % 1023,7 hPa 0,0 l/m 0 min 0 min 0 W/m 0,0 km/h (0 Bft) 95,74 %
05.04.2020 03:54 6,2 C 4,4 C 2,8 C 74 % 1023,7 hPa 0,0 l/m 0 min 0 min 0 W/m 0,0 km/h (0 Bft) 95,74 %
05.04.2020 03:56 6,2 C 4,4 C 2,8 C 74 % 1023,6 hPa 0,0 l/m 0 min 0 min 0 W/m 0,0 km/h (0 Bft) 95,74 %
05.04.2020 03:58 6,1 C 4,4 C 2,8 C 74 % 1023,7 hPa 0,0 l/m 0 min 0 min 0 W/m 0,0 km/h (0 Bft) 97,87 %
05.04.2020 04:00 6,1 C 4,4 C 2,2 C 74 % 1023,7 hPa 0,0 l/m 0 min 0 min 0 W/m 0,0 km/h (0 Bft) 97,83 %
05.04.2020 04:02 6,1 C 4,4 C 2,2 C 74 % 1023,7 hPa 0,0 l/m 0 min 0 min 0 W/m 0,0 km/h (0 Bft) 100,00 %
05.04.2020 04:04 6,0 C 4,4 C 2,2 C 74 % 1023,7 hPa 0,0 l/m 0 min 0 min 0 W/m 0,0 km/h (0 Bft) 100,00 %
05.04.2020 04:06 5,9 C 4,4 C 2,2 C 75 % 1023,6 hPa 0,0 l/m 0 min 0 min 0 W/m 0,0 km/h (0 Bft) 92,86 %
05.04.2020 04:08 5,9 C 4,4 C 2,2 C 75 % 1023,7 hPa 0,0 l/m 0 min 0 min 0 W/m 0,0 km/h (0 Bft) 100,00 %
05.04.2020 04:10 5,9 C 4,4 C 2,8 C 75 % 1023,6 hPa 0,0 l/m 0 min 0 min 0 W/m 0,0 km/h (0 Bft) 97,83 %
05.04.2020 04:12 5,8 C 5,0 C 2,8 C 75 % 1023,6 hPa 0,0 l/m 0 min 0 min 0 W/m 0,0 km/h (0 Bft) 97,87 %
05.04.2020 04:14 5,8 C 4,4 C 2,8 C 75 % 1023,7 hPa 0,0 l/m 0 min 0 min 0 W/m 0,0 km/h (0 Bft) 97,87 %
05.04.2020 04:16 5,8 C 4,4 C 2,2 C 75 % 1023,6 hPa 0,0 l/m 0 min 0 min 0 W/m 0,0 km/h (0 Bft) 97,87 %
05.04.2020 04:18 5,7 C 4,4 C 2,2 C 75 % 1023,6 hPa 0,0 l/m 0 min 0 min 0 W/m 0,0 km/h (0 Bft) 95,74 %
05.04.2020 04:20 5,7 C 4,4 C 2,2 C 76 % 1023,6 hPa 0,0 l/m 0 min 0 min 0 W/m 0,0 km/h (0 Bft) 95,74 %
05.04.2020 04:22 5,7 C 5,0 C 2,8 C 76 % 1023,6 hPa 0,0 l/m 0 min 0 min 0 W/m 0,0 km/h (0 Bft) 97,83 %
05.04.2020 04:24 5,7 C 5,0 C 2,8 C 76 % 1023,7 hPa 0,0 l/m 0 min 0 min 0 W/m 6,4 km/h (2 Bft) 97,87 %
05.04.2020 04:26 5,7 C 5,0 C 2,8 C 76 % 1023,6 hPa 0,0 l/m 0 min 0 min 0 W/m 6,4 km/h (2 Bft) 95,74 %
05.04.2020 04:28 5,6 C 5,0 C 2,8 C 76 % 1023,7 hPa 0,0 l/m 0 min 0 min 0 W/m 0,0 km/h (0 Bft) 97,87 %
05.04.2020 04:30 5,6 C 5,6 C 3,3 C 77 % 1023,6 hPa 0,0 l/m 0 min 0 min 0 W/m 0,0 km/h (0 Bft) 93,62 %
05.04.2020 04:32 5,6 C 5,6 C 3,3 C 77 % 1023,6 hPa 0,0 l/m 0 min 0 min 0 W/m 0,0 km/h (0 Bft) 97,87 %
05.04.2020 04:34 5,6 C 5,6 C 3,9 C 77 % 1023,6 hPa 0,0 l/m 0 min 0 min 0 W/m 0,0 km/h (0 Bft) 97,83 %
05.04.2020 04:36 5,6 C 5,6 C 3,9 C 77 % 1023,6 hPa 0,0 l/m 0 min 0 min 0 W/m 0,0 km/h (0 Bft) 95,74 %
05.04.2020 04:38 5,7 C 5,6 C 3,9 C 77 % 1023,6 hPa 0,0 l/m 0 min 0 min 0 W/m 0,0 km/h (0 Bft) 97,87 %
05.04.2020 04:40 5,7 C 5,6 C 3,9 C 77 % 1023,6 hPa 0,0 l/m 0 min 0 min 0 W/m 0,0 km/h (0 Bft) 80,85 %
05.04.2020 04:42 5,7 C 5,6 C 3,9 C 77 % 1023,6 hPa 0,0 l/m 0 min 0 min 0 W/m 0,0 km/h (0 Bft) 73,81 %
05.04.2020 04:44 5,7 C 5,6 C 3,3 C 77 % 1023,6 hPa 0,0 l/m 0 min 0 min 0 W/m 0,0 km/h (0 Bft) 100,00 %
05.04.2020 04:46 5,7 C 5,0 C 3,3 C 77 % 1023,6 hPa 0,0 l/m 0 min 0 min 0 W/m 0,0 km/h (0 Bft) 93,48 %
05.04.2020 04:48 5,7 C 5,0 C 3,3 C 77 % 1023,6 hPa 0,0 l/m 0 min 0 min 0 W/m 0,0 km/h (0 Bft) 100,00 %
05.04.2020 04:50 5,7 C 5,0 C 3,3 C 77 % 1023,6 hPa 0,0 l/m 0 min 0 min 0 W/m 0,0 km/h (0 Bft) 100,00 %
05.04.2020 04:52 5,7 C 5,0 C 2,8 C 77 % 1023,6 hPa 0,0 l/m 0 min 0 min 0 W/m 0,0 km/h (0 Bft) 97,87 %
05.04.2020 04:54 5,7 C 4,4 C 2,8 C 77 % 1023,6 hPa 0,0 l/m 0 min 0 min 0 W/m 0,0 km/h (0 Bft) 97,87 %
05.04.2020 04:56 5,7 C 4,4 C 2,8 C 77 % 1023,6 hPa 0,0 l/m 0 min 0 min 0 W/m 0,0 km/h (0 Bft) 100,00 %
05.04.2020 04:58 5,7 C 3,9 C 2,2 C 77 % 1023,6 hPa 0,0 l/m 0 min 0 min 0 W/m 0,0 km/h (0 Bft) 100,00 %
05.04.2020 05:00 5,7 C 3,9 C 2,2 C 77 % 1023,6 hPa 0,0 l/m 0 min 0 min 0 W/m 0,0 km/h (0 Bft) 100,00 %
05.04.2020 05:02 5,7 C 3,9 C 2,2 C 77 % 1023,6 hPa 0,0 l/m 0 min 0 min 0 W/m 0,0 km/h (0 Bft) 97,87 %
05.04.2020 05:04 5,7 C 4,4 C 2,2 C 77 % 1023,7 hPa 0,0 l/m 0 min 0 min 0 W/m 0,0 km/h (0 Bft) 100,00 %
05.04.2020 05:06 5,6 C 4,4 C 2,2 C 77 % 1023,6 hPa 0,0 l/m 0 min 0 min 0 W/m 0,0 km/h (0 Bft) 97,87 %
05.04.2020 05:08 5,6 C 4,4 C 2,2 C 77 % 1023,6 hPa 0,0 l/m 0 min 0 min 0 W/m 0,0 km/h (0 Bft) 100,00 %
05.04.2020 05:10 5,6 C 4,4 C 2,2 C 77 % 1023,6 hPa 0,0 l/m 0 min 0 min 0 W/m 0,0 km/h (0 Bft) 95,65 %
05.04.2020 05:12 5,6 C 4,4 C 2,2 C 77 % 1023,6 hPa 0,0 l/m 0 min 0 min 0 W/m 0,0 km/h (0 Bft) 95,74 %
05.04.2020 05:14 5,5 C 4,4 C 2,2 C 77 % 1023,6 hPa 0,0 l/m 0 min 0 min 0 W/m 0,0 km/h (0 Bft) 95,74 %
05.04.2020 05:16 5,5 C 4,4 C 2,2 C 77 % 1023,6 hPa 0,0 l/m 0 min 0 min 0 W/m 0,0 km/h (0 Bft) 95,74 %
05.04.2020 05:18 5,5 C 4,4 C 2,2 C 77 % 1023,6 hPa 0,0 l/m 0 min 0 min 0 W/m 0,0 km/h (0 Bft) 97,87 %
05.04.2020 05:20 5,4 C 4,4 C 2,2 C 77 % 1023,6 hPa 0,0 l/m 0 min 0 min 0 W/m 0,0 km/h (0 Bft) 97,83 %
05.04.2020 05:22 5,4 C 4,4 C 2,2 C 77 % 1023,6 hPa 0,0 l/m 0 min 0 min 0 W/m 0,0 km/h (0 Bft) 95,74 %
05.04.2020 05:24 5,4 C 4,4 C 2,2 C 77 % 1023,6 hPa 0,0 l/m 0 min 0 min 0 W/m 0,0 km/h (0 Bft) 93,62 %
05.04.2020 05:26 5,4 C 4,4 C 2,2 C 77 % 1023,6 hPa 0,0 l/m 0 min 0 min 0 W/m 0,0 km/h (0 Bft) 97,87 %
05.04.2020 05:28 5,4 C 4,4 C 2,2 C 77 % 1023,6 hPa 0,0 l/m 0 min 0 min 0 W/m 0,0 km/h (0 Bft) 95,74 %
05.04.2020 05:30 5,3 C 4,4 C 2,2 C 77 % 1023,6 hPa 0,0 l/m 0 min 0 min 0 W/m 0,0 km/h (0 Bft) 95,74 %
05.04.2020 05:32 5,3 C 4,4 C 2,2 C 77 % 1023,6 hPa 0,0 l/m 0 min 0 min 0 W/m 0,0 km/h (0 Bft) 95,74 %
05.04.2020 05:34 5,3 C 4,4 C 2,2 C 77 % 1023,6 hPa 0,0 l/m 0 min 0 min 0 W/m 0,0 km/h (0 Bft) 97,83 %
05.04.2020 05:36 5,3 C 4,4 C 2,2 C 77 % 1023,6 hPa 0,0 l/m 0 min 0 min 0 W/m 3,2 km/h (1 Bft) 93,62 %
05.04.2020 05:38 5,3 C 4,4 C 2,2 C 78 % 1023,6 hPa 0,0 l/m 0 min 0 min 0 W/m 0,0 km/h (0 Bft) 97,87 %
05.04.2020 05:40 5,3 C 4,4 C 2,2 C 78 % 1023,6 hPa 0,0 l/m 0 min 0 min 0 W/m 0,0 km/h (0 Bft) 95,74 %
05.04.2020 05:42 5,2 C 4,4 C 2,2 C 78 % 1023,5 hPa 0,0 l/m 0 min 0 min 0 W/m 0,0 km/h (0 Bft) 53,33 %
05.04.2020 05:44 5,2 C 4,4 C 2,2 C 78 % 1023,6 hPa 0,0 l/m 0 min 0 min 0 W/m 0,0 km/h (0 Bft) 95,35 %
05.04.2020 05:46 5,2 C 4,4 C 2,8 C 78 % 1023,5 hPa 0,0 l/m 0 min 0 min 0 W/m 0,0 km/h (0 Bft) 95,74 %
05.04.2020 05:48 5,2 C 4,4 C 2,8 C 78 % 1023,6 hPa 0,0 l/m 0 min 0 min 0 W/m 0,0 km/h (0 Bft) 97,87 %
05.04.2020 05:50 5,2 C 4,4 C 2,8 C 78 % 1023,6 hPa 0,0 l/m 0 min 0 min 0 W/m 0,0 km/h (0 Bft) 100,00 %
05.04.2020 05:52 5,2 C 4,4 C 2,2 C 78 % 1023,6 hPa 0,0 l/m 0 min 0 min 0 W/m 0,0 km/h (0 Bft) 97,87 %
05.04.2020 05:54 5,2 C 4,4 C 2,2 C 78 % 1023,6 hPa 0,0 l/m 0 min 0 min 0 W/m 0,0 km/h (0 Bft) 100,00 %
05.04.2020 05:56 5,1 C 4,4 C 2,2 C 78 % 1023,6 hPa 0,0 l/m 0 min 0 min 0 W/m 0,0 km/h (0 Bft) 100,00 %
05.04.2020 05:58 5,1 C 4,4 C 2,2 C 78 % 1023,6 hPa 0,0 l/m 0 min 0 min 0 W/m 0,0 km/h (0 Bft) 100,00 %
05.04.2020 06:00 5,1 C 4,4 C 2,2 C 79 % 1023,6 hPa 0,0 l/m 0 min 0 min 0 W/m 0,0 km/h (0 Bft) 95,74 %
05.04.2020 06:02 5,1 C 4,4 C 2,8 C 79 % 1023,5 hPa 0,0 l/m 0 min 0 min 0 W/m 0,0 km/h (0 Bft) 97,87 %
05.04.2020 06:04 5,1 C 4,4 C 2,8 C 79 % 1023,6 hPa 0,0 l/m 0 min 0 min 0 W/m 0,0 km/h (0 Bft) 97,87 %
05.04.2020 06:08 5,1 C 4,4 C 3,3 C 79 % 1023,6 hPa 0,0 l/m 0 min 0 min 0 W/m 0,0 km/h (0 Bft) 100,00 %
05.04.2020 06:10 5,1 C 4,4 C 3,3 C 79 % 1023,6 hPa 0,0 l/m 0 min 0 min 0 W/m 0,0 km/h (0 Bft) 100,00 %
05.04.2020 06:12 5,1 C 5,0 C 3,3 C 79 % 1023,6 hPa 0,0 l/m 0 min 0 min 0 W/m 16,1 km/h (3 Bft) 100,00 %
05.04.2020 06:14 5,1 C 5,0 C 3,3 C 79 % 1023,6 hPa 0,0 l/m 0 min 0 min 0 W/m 3,2 km/h (1 Bft) 97,87 %
05.04.2020 06:16 5,1 C 5,0 C 3,9 C 79 % 1023,6 hPa 0,0 l/m 0 min 0 min 0 W/m 0,0 km/h (0 Bft) 97,87 %
05.04.2020 06:18 5,1 C 5,0 C 3,9 C 79 % 1023,6 hPa 0,0 l/m 0 min 0 min 0 W/m 0,0 km/h (0 Bft) 97,83 %
05.04.2020 06:20 5,2 C 5,0 C 3,9 C 79 % 1023,6 hPa 0,0 l/m 0 min 0 min 0 W/m 0,0 km/h (0 Bft) 97,87 %
05.04.2020 06:22 5,2 C 4,4 C 3,3 C 79 % 1023,7 hPa 0,0 l/m 0 min 0 min 0 W/m 0,0 km/h (0 Bft) 97,87 %
05.04.2020 06:24 5,2 C 4,4 C 3,3 C 79 % 1023,6 hPa 0,0 l/m 0 min 0 min 0 W/m 0,0 km/h (0 Bft) 97,87 %
05.04.2020 06:26 5,2 C 5,0 C 3,3 C 79 % 1023,6 hPa 0,0 l/m 0 min 0 min 0 W/m 0,0 km/h (0 Bft) 97,87 %
05.04.2020 06:28 5,2 C 4,4 C 3,3 C 79 % 1023,6 hPa 0,0 l/m 0 min 0 min 0 W/m 0,0 km/h (0 Bft) 97,87 %
05.04.2020 06:30 5,2 C 4,4 C 3,3 C 79 % 1023,6 hPa 0,0 l/m 0 min 0 min 0 W/m 0,0 km/h (0 Bft) 97,83 %
05.04.2020 06:32 5,2 C 4,4 C 3,3 C 79 % 1023,6 hPa 0,0 l/m 0 min 0 min 0 W/m 12,9 km/h (3 Bft) 97,87 %
05.04.2020 06:34 5,2 C 5,0 C 3,3 C 79 % 1023,6 hPa 0,0 l/m 0 min 0 min 0 W/m 0,0 km/h (0 Bft) 97,87 %
05.04.2020 06:36 5,2 C 4,4 C 3,3 C 79 % 1023,6 hPa 0,0 l/m 0 min 0 min 0 W/m 0,0 km/h (0 Bft) 97,87 %
05.04.2020 06:38 5,2 C 4,4 C 3,3 C 79 % 1023,7 hPa 0,0 l/m 0 min 0 min 0 W/m 0,0 km/h (0 Bft) 97,87 %
05.04.2020 06:40 5,3 C 5,0 C 3,3 C 79 % 1023,7 hPa 0,0 l/m 0 min 0 min 0 W/m 0,0 km/h (0 Bft) 95,74 %
05.04.2020 06:42 5,3 C 5,0 C 3,9 C 79 % 1023,6 hPa 0,0 l/m 0 min 0 min 0 W/m 0,0 km/h (0 Bft) 97,83 %
05.04.2020 06:44 5,3 C 5,0 C 3,9 C 79 % 1023,6 hPa 0,0 l/m 0 min 0 min 0 W/m 0,0 km/h (0 Bft) 93,62 %
05.04.2020 06:46 5,3 C 5,0 C 3,9 C 79 % 1023,6 hPa 0,0 l/m 0 min 0 min 0 W/m 0,0 km/h (0 Bft) 91,49 %
05.04.2020 06:48 5,3 C 5,0 C 3,9 C 79 % 1023,7 hPa 0,0 l/m 0 min 0 min 0 W/m 0,0 km/h (0 Bft) 93,62 %
05.04.2020 06:50 5,3 C 5,0 C 3,9 C 79 % 1023,6 hPa 0,0 l/m 0 min 0 min 0 W/m 0,0 km/h (0 Bft) 95,74 %
05.04.2020 06:52 5,3 C 5,0 C 3,9 C 79 % 1023,7 hPa 0,0 l/m 0 min 0 min 0 W/m 0,0 km/h (0 Bft) 93,62 %
05.04.2020 06:54 5,3 C 5,0 C 3,9 C 79 % 1023,7 hPa 0,0 l/m 0 min 0 min 0 W/m 12,9 km/h (3 Bft) 95,65 %
05.04.2020 06:56 5,3 C 5,0 C 3,9 C 79 % 1023,7 hPa 0,0 l/m 0 min 0 min 0 W/m 12,9 km/h (3 Bft) 91,49 %
05.04.2020 06:58 5,3 C 5,0 C 3,9 C 79 % 1023,7 hPa 0,0 l/m 0 min 0 min 0 W/m 0,0 km/h (0 Bft) 95,74 %
05.04.2020 07:00 5,4 C 5,0 C 3,9 C 79 % 1023,7 hPa 0,0 l/m 0 min 0 min 1 W/m 0,0 km/h (0 Bft) 95,74 %
05.04.2020 07:02 5,4 C 5,0 C 3,9 C 79 % 1023,7 hPa 0,0 l/m 0 min 0 min 5 W/m 0,0 km/h (0 Bft) 93,62 %
05.04.2020 07:04 5,4 C 5,0 C 3,9 C 79 % 1023,7 hPa 0,0 l/m 0 min 0 min 5 W/m 0,0 km/h (0 Bft) 95,74 %
05.04.2020 07:06 5,4 C 5,0 C 3,9 C 79 % 1023,8 hPa 0,0 l/m 0 min 0 min 6 W/m 0,0 km/h (0 Bft) 95,65 %
05.04.2020 07:08 5,4 C 5,0 C 3,9 C 79 % 1023,8 hPa 0,0 l/m 0 min 0 min 7 W/m 0,0 km/h (0 Bft) 91,49 %
05.04.2020 07:10 5,4 C 5,0 C 3,9 C 79 % 1023,8 hPa 0,0 l/m 0 min 0 min 8 W/m 0,0 km/h (0 Bft) 93,62 %
05.04.2020 07:12 5,4 C 5,0 C 3,9 C 79 % 1023,8 hPa 0,0 l/m 0 min 0 min 9 W/m 0,0 km/h (0 Bft) 95,74 %
05.04.2020 07:14 5,4 C 5,0 C 3,9 C 79 % 1023,9 hPa 0,0 l/m 0 min 0 min 10 W/m 0,0 km/h (0 Bft) 95,74 %
05.04.2020 07:16 5,4 C 5,0 C 3,9 C 79 % 1023,8 hPa 0,0 l/m 0 min 0 min 11 W/m 16,1 km/h (3 Bft) 95,65 %
05.04.2020 07:18 5,4 C 5,0 C 3,9 C 79 % 1023,8 hPa 0,0 l/m 0 min 0 min 12 W/m 0,0 km/h (0 Bft) 95,74 %
05.04.2020 07:20 5,4 C 5,0 C 3,9 C 79 % 1023,9 hPa 0,0 l/m 0 min 0 min 12 W/m 0,0 km/h (0 Bft) 91,49 %
05.04.2020 07:22 5,4 C 5,0 C 3,9 C 79 % 1023,9 hPa 0,0 l/m 0 min 0 min 13 W/m 0,0 km/h (0 Bft) 95,74 %
05.04.2020 07:24 5,5 C 5,0 C 3,9 C 79 % 1023,9 hPa 0,0 l/m 0 min 0 min 14 W/m 12,9 km/h (3 Bft) 95,74 %
05.04.2020 07:26 5,5 C 5,0 C 3,9 C 79 % 1023,9 hPa 0,0 l/m 0 min 0 min 15 W/m 6,4 km/h (2 Bft) 91,49 %
05.04.2020 07:28 5,5 C 5,0 C 3,9 C 79 % 1023,9 hPa 0,0 l/m 0 min 0 min 16 W/m 3,2 km/h (1 Bft) 97,83 %
05.04.2020 07:30 5,5 C 5,0 C 3,9 C 79 % 1024,0 hPa 0,0 l/m 0 min 0 min 17 W/m 6,4 km/h (2 Bft) 97,87 %
05.04.2020 07:32 5,6 C 5,0 C 3,9 C 79 % 1024,0 hPa 0,0 l/m 0 min 0 min 18 W/m 6,4 km/h (2 Bft) 97,87 %
05.04.2020 07:34 5,6 C 5,0 C 3,9 C 79 % 1024,0 hPa 0,0 l/m 0 min 0 min 18 W/m 3,2 km/h (1 Bft) 97,87 %
05.04.2020 07:36 5,6 C 5,0 C 3,9 C 79 % 1024,0 hPa 0,0 l/m 0 min 0 min 19 W/m 6,4 km/h (2 Bft) 97,87 %
05.04.2020 07:38 5,6 C 5,0 C 3,9 C 79 % 1024,1 hPa 0,0 l/m 0 min 0 min 20 W/m 0,0 km/h (0 Bft) 95,74 %
05.04.2020 07:40 5,6 C 5,0 C 3,9 C 79 % 1024,0 hPa 0,0 l/m 0 min 0 min 21 W/m 0,0 km/h (0 Bft) 95,65 %
05.04.2020 07:42 5,6 C 5,0 C 4,4 C 79 % 1024,0 hPa 0,0 l/m 0 min 0 min 21 W/m 0,0 km/h (0 Bft) 97,87 %
05.04.2020 07:44 5,6 C 5,6 C 4,4 C 79 % 1024,1 hPa 0,0 l/m 0 min 0 min 22 W/m 0,0 km/h (0 Bft) 97,87 %
05.04.2020 07:46 5,6 C 5,6 C 4,4 C 79 % 1024,0 hPa 0,0 l/m 0 min 0 min 23 W/m 12,9 km/h (3 Bft) 97,87 %
05.04.2020 07:48 5,6 C 5,6 C 4,4 C 79 % 1024,1 hPa 0,0 l/m 0 min 0 min 24 W/m 0,0 km/h (0 Bft) 97,87 %
05.04.2020 07:50 5,7 C 5,6 C 4,4 C 79 % 1024,1 hPa 0,0 l/m 0 min 0 min 25 W/m 0,0 km/h (0 Bft) 97,87 %
05.04.2020 07:52 5,7 C 5,6 C 4,4 C 79 % 1024,1 hPa 0,0 l/m 0 min 0 min 25 W/m 0,0 km/h (0 Bft) 97,83 %
05.04.2020 07:54 5,7 C 5,6 C 4,4 C 79 % 1024,1 hPa 0,0 l/m 0 min 0 min 26 W/m 6,4 km/h (2 Bft) 97,87 %
05.04.2020 07:56 5,7 C 5,6 C 4,4 C 79 % 1024,1 hPa 0,0 l/m 0 min 0 min 26 W/m 12,9 km/h (3 Bft) 95,74 %
05.04.2020 07:58 5,8 C 6,1 C 4,4 C 79 % 1024,1 hPa 0,0 l/m 0 min 0 min 27 W/m 16,1 km/h (3 Bft) 95,74 %
05.04.2020 08:00 5,8 C 6,1 C 5,0 C 79 % 1024,1 hPa 0,0 l/m 0 min 0 min 28 W/m 12,9 km/h (3 Bft) 93,62 %
05.04.2020 08:02 5,9 C 6,1 C 5,0 C 79 % 1024,1 hPa 0,0 l/m 0 min 0 min 28 W/m 12,9 km/h (3 Bft) 95,74 %
05.04.2020 08:04 5,9 C 6,1 C 5,0 C 79 % 1024,2 hPa 0,0 l/m 0 min 0 min 29 W/m 0,0 km/h (0 Bft) 97,83 %
05.04.2020 08:06 6,0 C 6,1 C 5,6 C 79 % 1024,2 hPa 0,0 l/m 0 min 0 min 30 W/m 12,9 km/h (3 Bft) 95,74 %
05.04.2020 08:08 6,1 C 6,7 C 5,6 C 78 % 1024,2 hPa 0,0 l/m 0 min 0 min 30 W/m 12,9 km/h (3 Bft) 100,00 %
05.04.2020 08:10 6,2 C 6,7 C 5,6 C 78 % 1024,2 hPa 0,0 l/m 0 min 0 min 32 W/m 16,1 km/h (3 Bft) 100,00 %
05.04.2020 08:12 6,2 C 6,7 C 5,6 C 78 % 1024,2 hPa 0,0 l/m 0 min 0 min 32 W/m 16,1 km/h (3 Bft) 100,00 %
05.04.2020 08:14 6,3 C 6,7 C 5,6 C 78 % 1024,2 hPa 0,0 l/m 0 min 0 min 33 W/m 6,4 km/h (2 Bft) 97,83 %
05.04.2020 08:16 6,4 C 6,7 C 5,6 C 78 % 1024,2 hPa 0,0 l/m 0 min 0 min 33 W/m 0,0 km/h (0 Bft) 100,00 %
05.04.2020 08:18 6,5 C 6,7 C 5,6 C 78 % 1024,2 hPa 0,0 l/m 0 min 0 min 33 W/m 12,9 km/h (3 Bft) 100,00 %
05.04.2020 08:20 6,5 C 7,2 C 6,1 C 78 % 1024,2 hPa 0,0 l/m 0 min 0 min 34 W/m 0,0 km/h (0 Bft) 100,00 %
05.04.2020 08:22 6,6 C 7,2 C 6,1 C 78 % 1024,2 hPa 0,0 l/m 0 min 0 min 35 W/m 12,9 km/h (3 Bft) 100,00 %
05.04.2020 08:24 6,7 C 7,2 C 6,1 C 78 % 1024,3 hPa 0,0 l/m 0 min 0 min 35 W/m 3,2 km/h (1 Bft) 97,87 %
05.04.2020 08:26 6,8 C 7,2 C 6,1 C 77 % 1024,3 hPa 0,0 l/m 0 min 0 min 37 W/m 0,0 km/h (0 Bft) 100,00 %
05.04.2020 08:28 6,8 C 7,2 C 6,1 C 77 % 1024,3 hPa 0,0 l/m 0 min 0 min 37 W/m 12,9 km/h (3 Bft) 100,00 %
05.04.2020 08:30 6,9 C 7,8 C 6,7 C 77 % 1024,3 hPa 0,0 l/m 0 min 0 min 37 W/m 22,5 km/h (4 Bft) 97,87 %
05.04.2020 08:32 7,1 C 7,8 C 6,7 C 77 % 1024,3 hPa 0,0 l/m 0 min 0 min 39 W/m 12,9 km/h (3 Bft) 97,87 %
05.04.2020 08:34 7,2 C 7,8 C 6,7 C 76 % 1024,3 hPa 0,0 l/m 0 min 0 min 39 W/m 16,1 km/h (3 Bft) 97,87 %
05.04.2020 08:36 7,3 C 7,8 C 6,7 C 76 % 1024,3 hPa 0,0 l/m 0 min 0 min 40 W/m 16,1 km/h (3 Bft) 100,00 %
05.04.2020 08:38 7,4 C 7,8 C 7,2 C 76 % 1024,3 hPa 0,0 l/m 0 min 0 min 40 W/m 22,5 km/h (4 Bft) 100,00 %
05.04.2020 08:40 7,5 C 8,3 C 7,2 C 75 % 1024,3 hPa 0,0 l/m 0 min 0 min 40 W/m 22,5 km/h (4 Bft) 100,00 %
05.04.2020 08:42 7,6 C 8,3 C 7,2 C 75 % 1024,2 hPa 0,0 l/m 0 min 0 min 41 W/m 16,1 km/h (3 Bft) 100,00 %
05.04.2020 08:44 7,7 C 8,3 C 7,2 C 75 % 1024,2 hPa 0,0 l/m 0 min 0 min 42 W/m 22,5 km/h (4 Bft) 100,00 %
05.04.2020 08:46 7,9 C 8,3 C 7,2 C 74 % 1024,2 hPa 0,0 l/m 0 min 0 min 42 W/m 22,5 km/h (4 Bft) 97,87 %
05.04.2020 08:48 8,0 C 8,3 C 7,8 C 73 % 1024,2 hPa 0,0 l/m 0 min 0 min 43 W/m 22,5 km/h (4 Bft) 100,00 %
05.04.2020 08:50 8,2 C 8,9 C 7,8 C 73 % 1024,2 hPa 0,0 l/m 0 min 0 min 44 W/m 35,4 km/h (5 Bft) 100,00 %
05.04.2020 08:52 8,3 C 8,9 C 7,8 C 72 % 1024,2 hPa 0,0 l/m 0 min 0 min 44 W/m 25,7 km/h (4 Bft) 100,00 %
05.04.2020 08:54 8,4 C 8,9 C 7,8 C 72 % 1024,2 hPa 0,0 l/m 0 min 0 min 45 W/m 19,3 km/h (3 Bft) 100,00 %
05.04.2020 08:56 8,6 C 8,9 C 7,8 C 71 % 1024,3 hPa 0,0 l/m 0 min 0 min 46 W/m 35,4 km/h (5 Bft) 97,87 %
05.04.2020 08:58 8,7 C 8,9 C 8,3 C 71 % 1024,3 hPa 0,0 l/m 0 min 0 min 46 W/m 29,0 km/h (5 Bft) 100,00 %
05.04.2020 09:00 8,8 C 8,9 C 8,3 C 71 % 1024,3 hPa 0,0 l/m 0 min 0 min 46 W/m 25,7 km/h (4 Bft) 100,00 %
05.04.2020 09:02 8,8 C 9,4 C 8,3 C 70 % 1024,3 hPa 0,0 l/m 0 min 0 min 47 W/m 22,5 km/h (4 Bft) 100,00 %
05.04.2020 09:04 9,0 C 9,4 C 8,3 C 70 % 1024,3 hPa 0,0 l/m 0 min 0 min 47 W/m 19,3 km/h (3 Bft) 100,00 %
05.04.2020 09:06 9,1 C 9,4 C 8,3 C 70 % 1024,3 hPa 0,0 l/m 0 min 0 min 47 W/m 19,3 km/h (3 Bft) 100,00 %
05.04.2020 09:08 9,1 C 9,4 C 8,3 C 69 % 1024,3 hPa 0,0 l/m 0 min 0 min 47 W/m 19,3 km/h (3 Bft) 100,00 %
05.04.2020 09:10 9,2 C 9,4 C 8,3 C 69 % 1024,2 hPa 0,0 l/m 0 min 0 min 49 W/m 29,0 km/h (5 Bft) 100,00 %
05.04.2020 09:12 9,3 C 10,0 C 8,3 C 69 % 1024,3 hPa 0,0 l/m 0 min 0 min 49 W/m 16,1 km/h (3 Bft) 100,00 %
05.04.2020 09:14 9,4 C 10,6 C 8,9 C 69 % 1024,3 hPa 0,0 l/m 0 min 0 min 49 W/m 25,7 km/h (4 Bft) 100,00 %
05.04.2020 09:16 9,5 C 10,6 C 8,9 C 68 % 1024,2 hPa 0,0 l/m 0 min 0 min 67 W/m 25,7 km/h (4 Bft) 100,00 %
05.04.2020 09:18 9,6 C 10,0 C 8,9 C 68 % 1024,3 hPa 0,0 l/m 2 min 0 min 258 W/m 19,3 km/h (3 Bft) 97,87 %
05.04.2020 09:20 9,7 C 11,1 C 8,9 C 67 % 1024,2 hPa 0,0 l/m 2 min 0 min 333 W/m 29,0 km/h (5 Bft) 95,74 %
05.04.2020 09:22 9,8 C 11,7 C 8,9 C 67 % 1024,2 hPa 0,0 l/m 2 min 0 min 339 W/m 22,5 km/h (4 Bft) 97,87 %
05.04.2020 09:24 9,9 C 10,6 C 8,9 C 66 % 1024,2 hPa 0,0 l/m 2 min 0 min 345 W/m 32,2 km/h (5 Bft) 97,87 %
05.04.2020 09:26 10,0 C 10,6 C 8,9 C 66 % 1024,2 hPa 0,0 l/m 2 min 0 min 351 W/m 22,5 km/h (4 Bft) 97,83 %
05.04.2020 09:28 10,1 C 10,0 C 9,4 C 66 % 1024,2 hPa 0,0 l/m 2 min 0 min 358 W/m 19,3 km/h (3 Bft) 95,74 %
05.04.2020 09:30 10,2 C 11,1 C 9,4 C 66 % 1024,1 hPa 0,0 l/m 2 min 0 min 364 W/m 35,4 km/h (5 Bft) 97,87 %
05.04.2020 09:32 10,3 C 12,8 C 9,4 C 65 % 1024,1 hPa 0,0 l/m 2 min 0 min 370 W/m 25,7 km/h (4 Bft) 97,87 %
05.04.2020 09:34 10,3 C 13,9 C 9,4 C 65 % 1024,1 hPa 0,0 l/m 2 min 0 min 376 W/m 22,5 km/h (4 Bft) 95,74 %
05.04.2020 09:36 10,4 C 13,9 C 9,4 C 65 % 1024,1 hPa 0,0 l/m 2 min 0 min 382 W/m 29,0 km/h (5 Bft) 95,74 %
05.04.2020 09:38 10,6 C 13,9 C 9,4 C 65 % 1024,2 hPa 0,0 l/m 2 min 0 min 388 W/m 16,1 km/h (3 Bft) 95,65 %
05.04.2020 09:40 10,8 C 13,9 C 10,0 C 65 % 1024,2 hPa 0,0 l/m 2 min 0 min 396 W/m 29,0 km/h (5 Bft) 95,74 %
05.04.2020 09:42 10,9 C 14,4 C 10,0 C 64 % 1024,2 hPa 0,0 l/m 2 min 0 min 400 W/m 35,4 km/h (5 Bft) 91,49 %
05.04.2020 09:44 11,1 C 14,4 C 12,2 C 63 % 1024,1 hPa 0,0 l/m 2 min 0 min 407 W/m 22,5 km/h (4 Bft) 93,62 %
05.04.2020 09:46 11,2 C 14,4 C 13,9 C 63 % 1024,1 hPa 0,0 l/m 2 min 0 min 412 W/m 29,0 km/h (5 Bft) 95,74 %
05.04.2020 09:48 11,3 C 15,0 C 15,0 C 63 % 1024,1 hPa 0,0 l/m 2 min 0 min 417 W/m 22,5 km/h (4 Bft) 95,74 %
05.04.2020 09:50 11,4 C 15,0 C 15,6 C 63 % 1024,1 hPa 0,0 l/m 2 min 0 min 426 W/m 29,0 km/h (5 Bft) 93,48 %
05.04.2020 09:52 11,6 C 15,0 C 16,1 C 62 % 1024,1 hPa 0,0 l/m 2 min 0 min 429 W/m 25,7 km/h (4 Bft) 95,74 %
05.04.2020 09:54 11,7 C 15,0 C 16,1 C 62 % 1024,1 hPa 0,0 l/m 2 min 0 min 436 W/m 22,5 km/h (4 Bft) 95,74 %
05.04.2020 09:56 11,8 C 15,0 C 16,7 C 62 % 1024,0 hPa 0,0 l/m 2 min 0 min 444 W/m 25,7 km/h (4 Bft) 97,87 %
05.04.2020 09:58 11,9 C 15,0 C 16,7 C 61 % 1023,9 hPa 0,0 l/m 2 min 0 min 450 W/m 22,5 km/h (4 Bft) 97,87 %
05.04.2020 10:00 12,0 C 15,6 C 17,8 C 61 % 1024,0 hPa 0,0 l/m 2 min 0 min 456 W/m 29,0 km/h (5 Bft) 97,87 %
05.04.2020 10:02 12,1 C 15,6 C 17,8 C 61 % 1024,0 hPa 0,0 l/m 2 min 0 min 462 W/m 19,3 km/h (3 Bft) 97,83 %
05.04.2020 10:04 12,3 C 16,1 C 17,8 C 61 % 1024,0 hPa 0,0 l/m 2 min 0 min 467 W/m 19,3 km/h (3 Bft) 97,87 %
05.04.2020 10:06 12,4 C 16,7 C 18,9 C 61 % 1024,0 hPa 0,0 l/m 2 min 0 min 472 W/m 19,3 km/h (3 Bft) 95,74 %
05.04.2020 10:08 12,6 C 16,1 C 18,3 C 60 % 1024,0 hPa 0,0 l/m 2 min 0 min 479 W/m 29,0 km/h (5 Bft) 97,87 %
05.04.2020 10:10 12,7 C 16,7 C 18,9 C 60 % 1024,0 hPa 0,0 l/m 2 min 0 min 484 W/m 22,5 km/h (4 Bft) 97,87 %
05.04.2020 10:12 12,8 C 16,1 C 18,3 C 59 % 1023,9 hPa 0,0 l/m 2 min 0 min 490 W/m 35,4 km/h (5 Bft) 95,65 %
05.04.2020 10:14 12,9 C 16,1 C 18,3 C 58 % 1024,0 hPa 0,0 l/m 2 min 0 min 496 W/m 19,3 km/h (3 Bft) 97,87 %
05.04.2020 10:16 13,0 C 16,7 C 18,9 C 58 % 1023,9 hPa 0,0 l/m 2 min 0 min 501 W/m 25,7 km/h (4 Bft) 97,87 %
05.04.2020 10:18 13,1 C 16,1 C 18,3 C 58 % 1024,0 hPa 0,0 l/m 2 min 0 min 507 W/m 32,2 km/h (5 Bft) 97,87 %
05.04.2020 10:20 13,2 C 16,1 C 18,3 C 58 % 1024,0 hPa 0,0 l/m 2 min 0 min 512 W/m 25,7 km/h (4 Bft) 97,87 %
05.04.2020 10:22 13,2 C 16,1 C 18,3 C 58 % 1023,9 hPa 0,0 l/m 2 min 0 min 517 W/m 29,0 km/h (5 Bft) 97,87 %
05.04.2020 10:24 13,3 C 16,1 C 17,8 C 57 % 1023,9 hPa 0,0 l/m 2 min 0 min 522 W/m 35,4 km/h (5 Bft) 95,65 %
05.04.2020 10:26 13,4 C 16,1 C 17,8 C 57 % 1023,9 hPa 0,0 l/m 2 min 0 min 527 W/m 29,0 km/h (5 Bft) 100,00 %
05.04.2020 10:28 13,4 C 16,7 C 18,3 C 57 % 1023,9 hPa 0,0 l/m 2 min 0 min 531 W/m 25,7 km/h (4 Bft) 97,87 %
05.04.2020 10:30 13,5 C 16,7 C 18,9 C 56 % 1023,9 hPa 0,0 l/m 2 min 0 min 537 W/m 35,4 km/h (5 Bft) 100,00 %
05.04.2020 10:32 13,6 C 16,7 C 18,9 C 57 % 1023,9 hPa 0,0 l/m 2 min 0 min 543 W/m 29,0 km/h (5 Bft) 100,00 %
05.04.2020 10:34 13,7 C 17,2 C 19,4 C 57 % 1023,9 hPa 0,0 l/m 2 min 0 min 548 W/m 19,3 km/h (3 Bft) 97,87 %
05.04.2020 10:36 13,8 C 17,8 C 20,0 C 57 % 1023,9 hPa 0,0 l/m 2 min 0 min 553 W/m 22,5 km/h (4 Bft) 100,00 %
05.04.2020 10:38 13,8 C 17,2 C 19,4 C 56 % 1023,9 hPa 0,0 l/m 2 min 0 min 557 W/m 25,7 km/h (4 Bft) 100,00 %
05.04.2020 10:40 13,9 C 16,7 C 18,9 C 55 % 1023,8 hPa 0,0 l/m 2 min 0 min 563 W/m 48,3 km/h (6 Bft) 100,00 %
05.04.2020 10:42 13,9 C 16,7 C 18,3 C 55 % 1023,8 hPa 0,0 l/m 2 min 0 min 568 W/m 29,0 km/h (5 Bft) 97,87 %
05.04.2020 10:44 14,0 C 16,7 C 18,9 C 55 % 1023,9 hPa 0,0 l/m 2 min 0 min 572 W/m 35,4 km/h (5 Bft) 100,00 %
05.04.2020 10:46 14,1 C 16,7 C 18,9 C 55 % 1023,8 hPa 0,0 l/m 2 min 0 min 578 W/m 29,0 km/h (5 Bft) 100,00 %
05.04.2020 10:48 14,2 C 17,2 C 18,3 C 55 % 1023,8 hPa 0,0 l/m 2 min 0 min 584 W/m 29,0 km/h (5 Bft) 100,00 %
05.04.2020 10:50 14,2 C 17,2 C 19,4 C 54 % 1023,8 hPa 0,0 l/m 2 min 0 min 588 W/m 25,7 km/h (4 Bft) 100,00 %
05.04.2020 10:52 14,3 C 17,2 C 17,8 C 54 % 1023,8 hPa 0,0 l/m 2 min 0 min 593 W/m 32,2 km/h (5 Bft) 97,87 %
05.04.2020 10:54 14,3 C 16,7 C 16,1 C 54 % 1023,7 hPa 0,0 l/m 2 min 0 min 598 W/m 41,8 km/h (6 Bft) 100,00 %
05.04.2020 10:56 14,3 C 16,7 C 15,6 C 54 % 1023,7 hPa 0,0 l/m 2 min 0 min 604 W/m 41,8 km/h (6 Bft) 100,00 %
05.04.2020 10:58 14,3 C 17,2 C 14,4 C 53 % 1023,7 hPa 0,0 l/m 2 min 0 min 608 W/m 32,2 km/h (5 Bft) 93,62 %
05.04.2020 11:00 14,3 C 17,8 C 14,4 C 54 % 1023,7 hPa 0,0 l/m 2 min 0 min 613 W/m 38,6 km/h (5 Bft) 100,00 %
05.04.2020 11:02 14,4 C 17,8 C 14,4 C 54 % 1023,7 hPa 0,0 l/m 2 min 0 min 617 W/m 22,5 km/h (4 Bft) 97,87 %
05.04.2020 11:04 14,6 C 18,3 C 14,4 C 54 % 1023,6 hPa 0,0 l/m 2 min 0 min 622 W/m 38,6 km/h (5 Bft) 100,00 %
05.04.2020 11:06 14,7 C 18,3 C 13,9 C 53 % 1023,6 hPa 0,0 l/m 2 min 0 min 627 W/m 32,2 km/h (5 Bft) 100,00 %
05.04.2020 11:08 14,8 C 18,3 C 14,4 C 54 % 1023,6 hPa 0,0 l/m 2 min 0 min 631 W/m 19,3 km/h (3 Bft) 100,00 %
05.04.2020 11:10 14,9 C 18,9 C 14,4 C 54 % 1023,6 hPa 0,0 l/m 2 min 0 min 635 W/m 22,5 km/h (4 Bft) 97,83 %
05.04.2020 11:12 15,0 C 18,9 C 14,4 C 53 % 1023,6 hPa 0,0 l/m 2 min 0 min 640 W/m 22,5 km/h (4 Bft) 97,87 %
05.04.2020 11:14 15,1 C 18,9 C 14,4 C 53 % 1023,6 hPa 0,0 l/m 2 min 0 min 644 W/m 25,7 km/h (4 Bft) 97,87 %
05.04.2020 11:16 15,2 C 18,9 C 14,4 C 52 % 1023,6 hPa 0,0 l/m 2 min 0 min 650 W/m 25,7 km/h (4 Bft) 97,87 %
05.04.2020 11:18 15,3 C 18,9 C 14,4 C 52 % 1023,5 hPa 0,0 l/m 2 min 0 min 654 W/m 25,7 km/h (4 Bft) 97,87 %
05.04.2020 11:20 15,4 C 18,9 C 14,4 C 52 % 1023,5 hPa 0,0 l/m 2 min 0 min 657 W/m 22,5 km/h (4 Bft) 95,74 %
05.04.2020 11:22 15,5 C 18,9 C 14,4 C 52 % 1023,5 hPa 0,0 l/m 2 min 0 min 663 W/m 29,0 km/h (5 Bft) 97,83 %
05.04.2020 11:24 15,6 C 18,9 C 14,4 C 51 % 1023,5 hPa 0,0 l/m 2 min 0 min 666 W/m 32,2 km/h (5 Bft) 95,74 %
05.04.2020 11:26 15,6 C 18,3 C 14,4 C 51 % 1023,5 hPa 0,0 l/m 2 min 0 min 670 W/m 41,8 km/h (6 Bft) 97,87 %
05.04.2020 11:28 15,6 C 18,9 C 14,4 C 51 % 1023,5 hPa 0,0 l/m 2 min 0 min 676 W/m 22,5 km/h (4 Bft) 97,87 %
05.04.2020 11:30 15,7 C 18,9 C 14,4 C 51 % 1023,5 hPa 0,0 l/m 2 min 0 min 680 W/m 38,6 km/h (5 Bft) 97,87 %
05.04.2020 11:32 15,7 C 18,9 C 15,0 C 50 % 1023,5 hPa 0,0 l/m 2 min 0 min 684 W/m 29,0 km/h (5 Bft) 97,87 %
05.04.2020 11:34 15,8 C 19,4 C 15,0 C 51 % 1023,4 hPa 0,0 l/m 2 min 0 min 688 W/m 22,5 km/h (4 Bft) 100,00 %
05.04.2020 11:36 15,8 C 20,0 C 15,0 C 51 % 1023,4 hPa 0,0 l/m 2 min 0 min 691 W/m 25,7 km/h (4 Bft) 97,87 %
05.04.2020 11:38 15,9 C 20,0 C 15,0 C 50 % 1023,4 hPa 0,0 l/m 2 min 0 min 696 W/m 29,0 km/h (5 Bft) 95,74 %
05.04.2020 11:40 16,1 C 19,4 C 15,0 C 49 % 1023,3 hPa 0,0 l/m 2 min 0 min 700 W/m 29,0 km/h (5 Bft) 93,62 %
05.04.2020 11:42 16,1 C 18,9 C 15,0 C 49 % 1023,2 hPa 0,0 l/m 2 min 0 min 704 W/m 38,6 km/h (5 Bft) 95,74 %
05.04.2020 11:44 16,1 C 18,9 C 15,0 C 48 % 1023,3 hPa 0,0 l/m 2 min 0 min 708 W/m 48,3 km/h (6 Bft) 95,65 %
05.04.2020 11:46 16,1 C 18,9 C 15,0 C 49 % 1023,3 hPa 0,0 l/m 2 min 0 min 710 W/m 35,4 km/h (5 Bft) 95,74 %
05.04.2020 11:48 16,1 C 19,4 C 15,0 C 49 % 1023,1 hPa 0,0 l/m 2 min 0 min 715 W/m 29,0 km/h (5 Bft) 95,74 %
05.04.2020 11:50 16,2 C 18,9 C 15,0 C 48 % 1023,0 hPa 0,0 l/m 2 min 0 min 714 W/m 48,3 km/h (6 Bft) 95,74 %
05.04.2020 11:52 16,2 C 18,9 C 15,0 C 48 % 1023,1 hPa 0,0 l/m 2 min 0 min 722 W/m 48,3 km/h (6 Bft) 95,74 %
05.04.2020 11:54 16,2 C 18,9 C 15,0 C 47 % 1023,1 hPa 0,0 l/m 2 min 0 min 726 W/m 41,8 km/h (6 Bft) 93,62 %
05.04.2020 11:56 16,2 C 18,9 C 15,0 C 47 % 1023,1 hPa 0,0 l/m 2 min 0 min 728 W/m 35,4 km/h (5 Bft) 95,65 %
05.04.2020 11:58 16,3 C 18,9 C 15,0 C 47 % 1023,1 hPa 0,0 l/m 2 min 0 min 732 W/m 35,4 km/h (5 Bft) 95,74 %
05.04.2020 12:00 16,3 C 19,4 C 15,0 C 47 % 1023,0 hPa 0,0 l/m 2 min 0 min 735 W/m 38,6 km/h (5 Bft) 95,74 %
05.04.2020 12:02 16,4 C 19,4 C 15,6 C 47 % 1023,0 hPa 0,0 l/m 2 min 0 min 737 W/m 35,4 km/h (5 Bft) 95,74 %
05.04.2020 12:04 16,4 C 19,4 C 15,6 C 47 % 1023,0 hPa 0,0 l/m 2 min 0 min 740 W/m 38,6 km/h (5 Bft) 95,74 %
05.04.2020 12:08 16,6 C 20,0 C 15,6 C 46 % 1022,9 hPa 0,0 l/m 4 min 0 min 745 W/m 35,4 km/h (5 Bft) 94,62 %
05.04.2020 12:10 16,7 C 20,0 C 15,6 C 46 % 1022,9 hPa 0,0 l/m 2 min 0 min 752 W/m 45,1 km/h (6 Bft) 93,62 %
05.04.2020 12:12 16,7 C 20,6 C 15,6 C 46 % 1022,9 hPa 0,0 l/m 2 min 0 min 754 W/m 38,6 km/h (5 Bft) 95,74 %
05.04.2020 12:14 16,8 C 20,0 C 16,1 C 45 % 1022,8 hPa 0,0 l/m 2 min 0 min 757 W/m 35,4 km/h (5 Bft) 95,74 %
05.04.2020 12:16 16,9 C 19,4 C 15,6 C 45 % 1022,8 hPa 0,0 l/m 2 min 0 min 758 W/m 41,8 km/h (6 Bft) 95,74 %
05.04.2020 12:18 16,9 C 20,6 C 16,1 C 45 % 1022,8 hPa 0,0 l/m 2 min 0 min 760 W/m 35,4 km/h (5 Bft) 95,74 %
05.04.2020 12:20 17,1 C 20,0 C 16,1 C 45 % 1022,8 hPa 0,0 l/m 2 min 0 min 762 W/m 57,9 km/h (7 Bft) 95,65 %
05.04.2020 12:22 17,1 C 20,0 C 16,1 C 44 % 1022,8 hPa 0,0 l/m 2 min 0 min 760 W/m 45,1 km/h (6 Bft) 97,87 %
05.04.2020 12:24 17,2 C 19,4 C 16,1 C 44 % 1022,8 hPa 0,0 l/m 2 min 0 min 769 W/m 51,5 km/h (7 Bft) 97,87 %
05.04.2020 12:26 17,2 C 20,0 C 16,1 C 44 % 1022,8 hPa 0,0 l/m 2 min 0 min 773 W/m 38,6 km/h (5 Bft) 97,87 %
05.04.2020 12:28 17,2 C 19,4 C 16,1 C 44 % 1022,9 hPa 0,0 l/m 2 min 0 min 774 W/m 48,3 km/h (6 Bft) 97,87 %
05.04.2020 12:30 17,2 C 19,4 C 16,1 C 44 % 1022,7 hPa 0,0 l/m 2 min 0 min 775 W/m 48,3 km/h (6 Bft) 97,87 %
05.04.2020 12:32 17,2 C 19,4 C 16,1 C 44 % 1022,7 hPa 0,0 l/m 2 min 0 min 774 W/m 51,5 km/h (7 Bft) 93,48 %
05.04.2020 12:34 17,2 C 20,0 C 16,1 C 44 % 1022,8 hPa 0,0 l/m 2 min 0 min 776 W/m 41,8 km/h (6 Bft) 97,87 %
05.04.2020 12:36 17,2 C 20,0 C 16,1 C 45 % 1022,6 hPa 0,0 l/m 2 min 0 min 781 W/m 41,8 km/h (6 Bft) 95,74 %
05.04.2020 12:38 17,3 C 20,0 C 16,1 C 45 % 1022,6 hPa 0,0 l/m 2 min 0 min 781 W/m 35,4 km/h (5 Bft) 95,74 %
05.04.2020 12:40 17,3 C 20,6 C 16,7 C 45 % 1022,6 hPa 0,0 l/m 2 min 0 min 782 W/m 48,3 km/h (6 Bft) 95,74 %
05.04.2020 12:42 17,4 C 21,1 C 16,7 C 45 % 1022,6 hPa 0,0 l/m 2 min 0 min 787 W/m 35,4 km/h (5 Bft) 91,49 %
05.04.2020 12:44 17,4 C 20,6 C 16,7 C 44 % 1022,5 hPa 0,0 l/m 2 min 0 min 786 W/m 35,4 km/h (5 Bft) 95,65 %
05.04.2020 12:46 17,5 C 20,6 C 16,7 C 45 % 1022,5 hPa 0,0 l/m 2 min 0 min 787 W/m 41,8 km/h (6 Bft) 95,74 %
05.04.2020 12:48 17,5 C 20,6 C 16,7 C 44 % 1022,6 hPa 0,0 l/m 2 min 0 min 793 W/m 45,1 km/h (6 Bft) 95,74 %
05.04.2020 12:50 17,6 C 20,0 C 16,7 C 43 % 1022,5 hPa 0,0 l/m 2 min 0 min 790 W/m 67,6 km/h (8 Bft) 97,87 %
05.04.2020 12:52 17,6 C 20,6 C 16,7 C 43 % 1022,5 hPa 0,0 l/m 2 min 0 min 790 W/m 35,4 km/h (5 Bft) 97,87 %
05.04.2020 12:54 17,6 C 20,6 C 16,7 C 44 % 1022,5 hPa 0,0 l/m 2 min 0 min 790 W/m 48,3 km/h (6 Bft) 97,83 %
05.04.2020 12:56 17,6 C 20,0 C 16,7 C 43 % 1022,5 hPa 0,0 l/m 2 min 0 min 793 W/m 41,8 km/h (6 Bft) 97,87 %
05.04.2020 12:58 17,6 C 20,6 C 16,7 C 44 % 1022,4 hPa 0,0 l/m 2 min 0 min 798 W/m 38,6 km/h (5 Bft) 95,74 %
05.04.2020 13:00 17,6 C 20,6 C 16,7 C 44 % 1022,5 hPa 0,0 l/m 2 min 0 min 798 W/m 38,6 km/h (5 Bft) 97,87 %
05.04.2020 13:02 17,7 C 20,6 C 16,7 C 44 % 1022,4 hPa 0,0 l/m 2 min 0 min 802 W/m 35,4 km/h (5 Bft) 97,87 %
05.04.2020 13:04 17,7 C 20,6 C 16,7 C 44 % 1022,3 hPa 0,0 l/m 2 min 0 min 802 W/m 29,0 km/h (5 Bft) 97,87 %
05.04.2020 13:06 17,7 C 20,6 C 17,2 C 44 % 1022,3 hPa 0,0 l/m 2 min 0 min 803 W/m 35,4 km/h (5 Bft) 93,48 %
05.04.2020 13:08 17,8 C 20,6 C 17,2 C 44 % 1022,2 hPa 0,0 l/m 2 min 0 min 802 W/m 32,2 km/h (5 Bft) 95,74 %
05.04.2020 13:10 17,8 C 20,6 C 17,2 C 44 % 1022,2 hPa 0,0 l/m 2 min 0 min 805 W/m 48,3 km/h (6 Bft) 97,87 %
05.04.2020 13:12 17,8 C 21,1 C 17,2 C 44 % 1022,2 hPa 0,0 l/m 2 min 0 min 801 W/m 32,2 km/h (5 Bft) 97,87 %
05.04.2020 13:14 17,9 C 21,7 C 17,8 C 44 % 1022,1 hPa 0,0 l/m 2 min 0 min 801 W/m 32,2 km/h (5 Bft) 97,87 %
05.04.2020 13:16 18,0 C 21,1 C 17,8 C 44 % 1022,1 hPa 0,0 l/m 2 min 0 min 805 W/m 35,4 km/h (5 Bft) 97,87 %
05.04.2020 13:18 18,0 C 20,6 C 17,2 C 43 % 1022,1 hPa 0,0 l/m 2 min 0 min 805 W/m 45,1 km/h (6 Bft) 97,87 %
05.04.2020 13:20 18,1 C 21,1 C 17,2 C 44 % 1022,1 hPa 0,0 l/m 2 min 0 min 809 W/m 25,7 km/h (4 Bft) 97,83 %
05.04.2020 13:22 18,1 C 21,1 C 17,8 C 43 % 1022,1 hPa 0,0 l/m 2 min 0 min 810 W/m 45,1 km/h (6 Bft) 97,87 %
05.04.2020 13:24 18,1 C 21,1 C 17,8 C 42 % 1022,1 hPa 0,0 l/m 2 min 0 min 812 W/m 45,1 km/h (6 Bft) 95,74 %
05.04.2020 13:26 18,2 C 20,6 C 17,8 C 41 % 1022,1 hPa 0,0 l/m 2 min 0 min 811 W/m 45,1 km/h (6 Bft) 97,87 %
05.04.2020 13:28 18,2 C 21,1 C 17,8 C 42 % 1022,1 hPa 0,0 l/m 2 min 0 min 813 W/m 64,4 km/h (8 Bft) 97,87 %
05.04.2020 13:30 18,2 C 20,6 C 17,8 C 41 % 1022,0 hPa 0,0 l/m 2 min 0 min 811 W/m 41,8 km/h (6 Bft) 100,00 %
05.04.2020 13:32 18,2 C 21,1 C 17,8 C 41 % 1022,0 hPa 0,0 l/m 2 min 0 min 810 W/m 35,4 km/h (5 Bft) 100,00 %
05.04.2020 13:34 18,2 C 21,1 C 17,8 C 41 % 1022,0 hPa 0,0 l/m 2 min 0 min 809 W/m 51,5 km/h (7 Bft) 100,00 %
05.04.2020 13:36 18,2 C 21,1 C 17,8 C 41 % 1022,0 hPa 0,0 l/m 2 min 0 min 808 W/m 45,1 km/h (6 Bft) 100,00 %
05.04.2020 13:38 18,3 C 20,6 C 18,3 C 41 % 1021,9 hPa 0,0 l/m 2 min 0 min 811 W/m 45,1 km/h (6 Bft) 100,00 %
05.04.2020 13:40 18,3 C 20,6 C 20,0 C 41 % 1021,9 hPa 0,0 l/m 2 min 0 min 810 W/m 41,8 km/h (6 Bft) 100,00 %
05.04.2020 13:42 18,3 C 20,6 C 22,2 C 41 % 1021,9 hPa 0,0 l/m 2 min 0 min 811 W/m 35,4 km/h (5 Bft) 100,00 %
05.04.2020 13:44 18,3 C 21,1 C 22,8 C 41 % 1022,0 hPa 0,0 l/m 2 min 0 min 813 W/m 38,6 km/h (5 Bft) 100,00 %
05.04.2020 13:46 18,3 C 21,7 C 23,3 C 42 % 1021,9 hPa 0,0 l/m 2 min 0 min 818 W/m 32,2 km/h (5 Bft) 100,00 %
05.04.2020 13:48 18,4 C 21,7 C 24,4 C 41 % 1021,9 hPa 0,0 l/m 2 min 0 min 814 W/m 38,6 km/h (5 Bft) 100,00 %
05.04.2020 13:50 18,5 C 21,7 C 24,4 C 41 % 1021,9 hPa 0,0 l/m 2 min 0 min 814 W/m 38,6 km/h (5 Bft) 100,00 %
05.04.2020 13:52 18,6 C 22,2 C 25,6 C 41 % 1021,7 hPa 0,0 l/m 2 min 0 min 815 W/m 35,4 km/h (5 Bft) 100,00 %
05.04.2020 13:54 18,6 C 22,2 C 25,6 C 41 % 1021,8 hPa 0,0 l/m 2 min 0 min 813 W/m 32,2 km/h (5 Bft) 100,00 %
05.04.2020 13:56 18,7 C 21,7 C 25,0 C 40 % 1021,7 hPa 0,0 l/m 2 min 0 min 812 W/m 38,6 km/h (5 Bft) 100,00 %
05.04.2020 13:58 18,8 C 22,8 C 25,6 C 41 % 1021,7 hPa 0,0 l/m 2 min 0 min 810 W/m 25,7 km/h (4 Bft) 100,00 %
05.04.2020 14:00 18,9 C 22,8 C 25,6 C 41 % 1021,7 hPa 0,0 l/m 2 min 0 min 812 W/m 35,4 km/h (5 Bft) 100,00 %
05.04.2020 14:02 18,9 C 22,8 C 25,0 C 40 % 1021,6 hPa 0,0 l/m 2 min 0 min 809 W/m 38,6 km/h (5 Bft) 100,00 %
05.04.2020 14:04 19,0 C 22,2 C 24,4 C 40 % 1021,6 hPa 0,0 l/m 2 min 0 min 811 W/m 29,0 km/h (5 Bft) 100,00 %
05.04.2020 14:06 19,1 C 21,7 C 24,4 C 40 % 1021,6 hPa 0,0 l/m 2 min 0 min 807 W/m 38,6 km/h (5 Bft) 100,00 %
05.04.2020 14:08 19,1 C 22,2 C 25,0 C 40 % 1021,6 hPa 0,0 l/m 2 min 0 min 807 W/m 41,8 km/h (6 Bft) 95,74 %
05.04.2020 14:10 19,1 C 21,7 C 25,0 C 39 % 1021,4 hPa 0,0 l/m 2 min 0 min 806 W/m 41,8 km/h (6 Bft) 97,87 %
05.04.2020 14:12 19,1 C 21,7 C 24,4 C 39 % 1021,5 hPa 0,0 l/m 2 min 0 min 804 W/m 45,1 km/h (6 Bft) 95,74 %
05.04.2020 14:14 19,1 C 21,7 C 25,0 C 39 % 1021,4 hPa 0,0 l/m 2 min 0 min 803 W/m 48,3 km/h (6 Bft) 97,87 %
05.04.2020 14:16 19,1 C 22,8 C 26,1 C 40 % 1021,5 hPa 0,0 l/m 2 min 0 min 804 W/m 41,8 km/h (6 Bft) 97,83 %
05.04.2020 14:18 19,1 C 22,2 C 25,0 C 40 % 1021,4 hPa 0,0 l/m 2 min 0 min 802 W/m 48,3 km/h (6 Bft) 97,87 %
05.04.2020 14:20 19,1 C 22,2 C 25,6 C 40 % 1021,4 hPa 0,0 l/m 2 min 0 min 799 W/m 32,2 km/h (5 Bft) 97,87 %
05.04.2020 14:22 19,1 C 21,7 C 24,4 C 40 % 1021,4 hPa 0,0 l/m 2 min 0 min 797 W/m 48,3 km/h (6 Bft) 97,87 %
05.04.2020 14:24 19,2 C 22,2 C 25,0 C 40 % 1021,4 hPa 0,0 l/m 2 min 0 min 801 W/m 38,6 km/h (5 Bft) 95,74 %
05.04.2020 14:26 19,2 C 22,2 C 24,4 C 40 % 1021,3 hPa 0,0 l/m 2 min 0 min 798 W/m 41,8 km/h (6 Bft) 97,87 %
05.04.2020 14:28 19,2 C 22,2 C 23,9 C 40 % 1021,3 hPa 0,0 l/m 2 min 0 min 797 W/m 35,4 km/h (5 Bft) 97,83 %
05.04.2020 14:30 19,1 C 21,7 C 22,8 C 40 % 1021,3 hPa 0,0 l/m 2 min 0 min 797 W/m 45,1 km/h (6 Bft) 95,74 %
05.04.2020 14:32 19,1 C 22,2 C 22,8 C 40 % 1021,3 hPa 0,0 l/m 2 min 0 min 792 W/m 25,7 km/h (4 Bft) 97,87 %
05.04.2020 14:34 19,2 C 21,7 C 21,7 C 41 % 1021,2 hPa 0,0 l/m 2 min 0 min 790 W/m 35,4 km/h (5 Bft) 97,87 %
05.04.2020 14:36 19,2 C 22,8 C 20,6 C 41 % 1021,2 hPa 0,0 l/m 2 min 0 min 788 W/m 35,4 km/h (5 Bft) 97,87 %
05.04.2020 14:38 19,2 C 22,8 C 20,0 C 41 % 1021,2 hPa 0,0 l/m 2 min 0 min 785 W/m 25,7 km/h (4 Bft) 97,87 %
05.04.2020 14:40 19,3 C 22,2 C 20,0 C 40 % 1021,2 hPa 0,0 l/m 2 min 0 min 780 W/m 38,6 km/h (5 Bft) 97,83 %
05.04.2020 14:42 19,3 C 22,2 C 20,0 C 40 % 1021,2 hPa 0,0 l/m 2 min 0 min 779 W/m 35,4 km/h (5 Bft) 97,87 %
05.04.2020 14:44 19,3 C 22,2 C 20,0 C 40 % 1021,1 hPa 0,0 l/m 2 min 0 min 776 W/m 29,0 km/h (5 Bft) 97,87 %
05.04.2020 14:46 19,3 C 21,7 C 19,4 C 40 % 1021,2 hPa 0,0 l/m 2 min 0 min 775 W/m 48,3 km/h (6 Bft) 95,74 %
05.04.2020 14:48 19,3 C 22,2 C 19,4 C 40 % 1021,2 hPa 0,0 l/m 2 min 0 min 773 W/m 29,0 km/h (5 Bft) 95,74 %
05.04.2020 14:50 19,3 C 22,2 C 19,4 C 39 % 1021,1 hPa 0,0 l/m 2 min 0 min 774 W/m 35,4 km/h (5 Bft) 97,87 %
05.04.2020 14:52 19,4 C 21,7 C 19,4 C 39 % 1021,1 hPa 0,0 l/m 2 min 0 min 774 W/m 38,6 km/h (5 Bft) 100,00 %
05.04.2020 14:54 19,4 C 22,2 C 19,4 C 39 % 1021,0 hPa 0,0 l/m 2 min 0 min 771 W/m 25,7 km/h (4 Bft) 100,00 %
05.04.2020 14:56 19,4 C 22,2 C 19,4 C 39 % 1021,1 hPa 0,0 l/m 2 min 0 min 765 W/m 32,2 km/h (5 Bft) 97,87 %
05.04.2020 14:58 19,5 C 22,8 C 19,4 C 40 % 1021,0 hPa 0,0 l/m 2 min 0 min 762 W/m 25,7 km/h (4 Bft) 100,00 %
05.04.2020 15:00 19,6 C 23,3 C 20,0 C 39 % 1020,9 hPa 0,0 l/m 2 min 0 min 756 W/m 19,3 km/h (3 Bft) 100,00 %
05.04.2020 15:02 19,6 C 22,8 C 20,0 C 39 % 1021,0 hPa 0,0 l/m 2 min 0 min 756 W/m 35,4 km/h (5 Bft) 97,87 %
05.04.2020 15:04 19,7 C 22,8 C 19,4 C 39 % 1020,9 hPa 0,0 l/m 2 min 0 min 754 W/m 35,4 km/h (5 Bft) 100,00 %
05.04.2020 15:06 19,7 C 22,8 C 19,4 C 39 % 1020,9 hPa 0,0 l/m 2 min 0 min 751 W/m 41,8 km/h (6 Bft) 100,00 %
05.04.2020 15:08 19,7 C 22,8 C 19,4 C 39 % 1020,9 hPa 0,0 l/m 2 min 0 min 747 W/m 32,2 km/h (5 Bft) 100,00 %
05.04.2020 15:10 19,8 C 22,2 C 19,4 C 39 % 1020,8 hPa 0,0 l/m 2 min 0 min 744 W/m 48,3 km/h (6 Bft) 100,00 %
05.04.2020 15:12 19,8 C 22,8 C 19,4 C 39 % 1020,8 hPa 0,0 l/m 2 min 0 min 743 W/m 29,0 km/h (5 Bft) 97,87 %
05.04.2020 15:14 19,8 C 23,3 C 20,0 C 39 % 1020,8 hPa 0,0 l/m 2 min 0 min 742 W/m 25,7 km/h (4 Bft) 97,83 %
05.04.2020 15:16 19,8 C 23,9 C 20,0 C 39 % 1020,7 hPa 0,0 l/m 2 min 0 min 743 W/m 19,3 km/h (3 Bft) 100,00 %
05.04.2020 15:18 19,9 C 23,3 C 20,0 C 39 % 1020,7 hPa 0,0 l/m 2 min 0 min 743 W/m 35,4 km/h (5 Bft) 100,00 %
05.04.2020 15:20 19,9 C 23,9 C 20,0 C 39 % 1020,5 hPa 0,0 l/m 2 min 0 min 737 W/m 29,0 km/h (5 Bft) 100,00 %
05.04.2020 15:22 20,0 C 22,8 C 20,0 C 39 % 1020,5 hPa 0,0 l/m 2 min 0 min 735 W/m 29,0 km/h (5 Bft) 97,87 %
05.04.2020 15:24 20,1 C 22,8 C 20,0 C 39 % 1020,5 hPa 0,0 l/m 2 min 0 min 729 W/m 41,8 km/h (6 Bft) 100,00 %
05.04.2020 15:26 20,1 C 22,8 C 20,0 C 39 % 1020,4 hPa 0,0 l/m 2 min 0 min 725 W/m 38,6 km/h (5 Bft) 100,00 %
05.04.2020 15:28 20,1 C 22,8 C 20,0 C 39 % 1020,5 hPa 0,0 l/m 2 min 0 min 726 W/m 29,0 km/h (5 Bft) 97,83 %
05.04.2020 15:30 20,1 C 23,3 C 20,0 C 38 % 1020,4 hPa 0,0 l/m 2 min 0 min 722 W/m 25,7 km/h (4 Bft) 95,74 %
05.04.2020 15:32 20,1 C 23,3 C 20,0 C 38 % 1020,4 hPa 0,0 l/m 2 min 0 min 717 W/m 29,0 km/h (5 Bft) 93,62 %
05.04.2020 15:34 20,2 C 23,3 C 20,0 C 38 % 1020,4 hPa 0,0 l/m 2 min 0 min 716 W/m 29,0 km/h (5 Bft) 95,74 %
05.04.2020 15:36 20,2 C 23,3 C 20,0 C 37 % 1020,4 hPa 0,0 l/m 2 min 0 min 713 W/m 38,6 km/h (5 Bft) 95,74 %
05.04.2020 15:38 20,3 C 22,8 C 20,0 C 37 % 1020,4 hPa 0,0 l/m 2 min 0 min 713 W/m 41,8 km/h (6 Bft) 95,65 %
05.04.2020 15:40 20,3 C 22,8 C 20,0 C 37 % 1020,4 hPa 0,0 l/m 2 min 0 min 711 W/m 35,4 km/h (5 Bft) 95,74 %
05.04.2020 15:42 20,3 C 22,8 C 20,0 C 37 % 1020,4 hPa 0,0 l/m 2 min 0 min 709 W/m 38,6 km/h (5 Bft) 95,74 %
05.04.2020 15:44 20,3 C 22,8 C 20,0 C 36 % 1020,4 hPa 0,0 l/m 2 min 0 min 700 W/m 45,1 km/h (6 Bft) 95,74 %
05.04.2020 15:46 20,3 C 22,2 C 20,0 C 35 % 1020,4 hPa 0,0 l/m 2 min 0 min 695 W/m 32,2 km/h (5 Bft) 93,62 %
05.04.2020 15:48 20,3 C 22,8 C 20,0 C 36 % 1020,4 hPa 0,0 l/m 2 min 0 min 693 W/m 29,0 km/h (5 Bft) 93,62 %
05.04.2020 15:50 20,3 C 22,8 C 20,0 C 36 % 1020,3 hPa 0,0 l/m 2 min 0 min 688 W/m 29,0 km/h (5 Bft) 95,65 %
05.04.2020 15:52 20,3 C 23,3 C 20,0 C 36 % 1020,4 hPa 0,0 l/m 2 min 0 min 683 W/m 29,0 km/h (5 Bft) 95,74 %
05.04.2020 15:54 20,3 C 22,8 C 20,0 C 36 % 1020,3 hPa 0,0 l/m 2 min 0 min 678 W/m 29,0 km/h (5 Bft) 95,74 %
05.04.2020 15:56 20,3 C 22,8 C 20,0 C 36 % 1020,3 hPa 0,0 l/m 2 min 0 min 675 W/m 35,4 km/h (5 Bft) 95,74 %
05.04.2020 15:58 20,3 C 22,8 C 20,0 C 36 % 1020,2 hPa 0,0 l/m 2 min 0 min 671 W/m 41,8 km/h (6 Bft) 93,62 %
05.04.2020 16:00 20,4 C 23,3 C 20,0 C 36 % 1020,2 hPa 0,0 l/m 2 min 0 min 664 W/m 25,7 km/h (4 Bft) 95,74 %
05.04.2020 16:02 20,4 C 23,3 C 20,0 C 36 % 1020,1 hPa 0,0 l/m 2 min 0 min 663 W/m 25,7 km/h (4 Bft) 93,48 %
05.04.2020 16:04 20,4 C 23,3 C 20,6 C 36 % 1020,1 hPa 0,0 l/m 2 min 0 min 661 W/m 29,0 km/h (5 Bft) 95,74 %
05.04.2020 16:06 20,5 C 23,9 C 20,6 C 38 % 1020,1 hPa 0,0 l/m 2 min 0 min 655 W/m 22,5 km/h (4 Bft) 95,74 %
05.04.2020 16:08 20,6 C 23,3 C 20,6 C 37 % 1020,1 hPa 0,0 l/m 2 min 0 min 650 W/m 35,4 km/h (5 Bft) 95,74 %
05.04.2020 16:10 20,6 C 22,8 C 20,6 C 36 % 1020,1 hPa 0,0 l/m 2 min 0 min 650 W/m 25,7 km/h (4 Bft) 95,74 %
05.04.2020 16:12 20,6 C 23,3 C 21,1 C 36 % 1020,0 hPa 0,0 l/m 2 min 0 min 646 W/m 25,7 km/h (4 Bft) 95,74 %
05.04.2020 16:14 20,6 C 22,2 C 20,6 C 36 % 1019,9 hPa 0,0 l/m 2 min 0 min 638 W/m 48,3 km/h (6 Bft) 95,65 %
05.04.2020 16:16 20,6 C 22,8 C 20,6 C 36 % 1019,9 hPa 0,0 l/m 2 min 0 min 634 W/m 25,7 km/h (4 Bft) 95,74 %
05.04.2020 16:18 20,6 C 22,8 C 21,1 C 36 % 1019,9 hPa 0,0 l/m 2 min 0 min 631 W/m 41,8 km/h (6 Bft) 95,74 %
05.04.2020 16:20 20,6 C 22,8 C 21,1 C 35 % 1020,0 hPa 0,0 l/m 2 min 0 min 627 W/m 38,6 km/h (5 Bft) 97,87 %
05.04.2020 16:22 20,6 C 22,8 C 21,1 C 36 % 1019,9 hPa 0,0 l/m 2 min 0 min 621 W/m 35,4 km/h (5 Bft) 97,87 %
05.04.2020 16:24 20,6 C 22,8 C 21,1 C 36 % 1019,9 hPa 0,0 l/m 2 min 0 min 614 W/m 29,0 km/h (5 Bft) 97,83 %
05.04.2020 16:26 20,6 C 22,8 C 21,1 C 36 % 1019,8 hPa 0,0 l/m 2 min 0 min 611 W/m 29,0 km/h (5 Bft) 100,00 %
05.04.2020 16:28 20,6 C 22,8 C 20,6 C 36 % 1019,7 hPa 0,0 l/m 2 min 0 min 609 W/m 22,5 km/h (4 Bft) 95,74 %
05.04.2020 16:30 20,6 C 23,3 C 21,1 C 36 % 1019,7 hPa 0,0 l/m 2 min 0 min 604 W/m 22,5 km/h (4 Bft) 97,87 %
05.04.2020 16:32 20,6 C 23,3 C 20,6 C 36 % 1019,7 hPa 0,0 l/m 2 min 0 min 601 W/m 19,3 km/h (3 Bft) 95,74 %
05.04.2020 16:34 20,7 C 23,3 C 20,6 C 36 % 1019,7 hPa 0,0 l/m 2 min 0 min 593 W/m 32,2 km/h (5 Bft) 97,87 %
05.04.2020 16:36 20,7 C 23,3 C 20,6 C 36 % 1019,6 hPa 0,0 l/m 2 min 0 min 588 W/m 25,7 km/h (4 Bft) 97,83 %
05.04.2020 16:38 20,7 C 23,3 C 20,6 C 36 % 1019,6 hPa 0,0 l/m 2 min 0 min 583 W/m 22,5 km/h (4 Bft) 95,74 %
05.04.2020 16:40 20,7 C 22,8 C 20,6 C 36 % 1019,5 hPa 0,0 l/m 2 min 0 min 577 W/m 32,2 km/h (5 Bft) 97,87 %
05.04.2020 16:42 20,7 C 23,3 C 20,6 C 37 % 1019,5 hPa 0,0 l/m 2 min 0 min 573 W/m 22,5 km/h (4 Bft) 97,87 %
05.04.2020 16:44 20,7 C 22,8 C 20,6 C 36 % 1019,5 hPa 0,0 l/m 2 min 0 min 570 W/m 29,0 km/h (5 Bft) 97,87 %
05.04.2020 16:46 20,8 C 23,3 C 20,6 C 36 % 1019,5 hPa 0,0 l/m 2 min 0 min 565 W/m 22,5 km/h (4 Bft) 95,74 %
05.04.2020 16:48 20,8 C 23,3 C 20,6 C 36 % 1019,4 hPa 0,0 l/m 2 min 0 min 559 W/m 25,7 km/h (4 Bft) 97,83 %
05.04.2020 16:50 20,8 C 23,3 C 20,6 C 36 % 1019,4 hPa 0,0 l/m 2 min 0 min 554 W/m 25,7 km/h (4 Bft) 95,74 %
05.04.2020 16:52 20,8 C 23,3 C 21,1 C 37 % 1019,4 hPa 0,0 l/m 2 min 0 min 548 W/m 25,7 km/h (4 Bft) 97,87 %
05.04.2020 16:54 20,8 C 23,3 C 21,1 C 36 % 1019,4 hPa 0,0 l/m 2 min 0 min 542 W/m 22,5 km/h (4 Bft) 95,74 %
05.04.2020 16:56 20,8 C 22,8 C 21,1 C 36 % 1019,3 hPa 0,0 l/m 2 min 0 min 539 W/m 29,0 km/h (5 Bft) 97,87 %
05.04.2020 16:58 20,9 C 22,8 C 21,1 C 36 % 1019,3 hPa 0,0 l/m 2 min 0 min 532 W/m 35,4 km/h (5 Bft) 97,14 %
05.04.2020 17:00 20,8 C 22,8 C 21,1 C 36 % 1019,2 hPa 0,0 l/m 2 min 0 min 526 W/m 25,7 km/h (4 Bft) 98,31 %
05.04.2020 17:02 20,8 C 22,8 C 21,7 C 36 % 1019,3 hPa 0,0 l/m 2 min 0 min 519 W/m 38,6 km/h (5 Bft) 97,87 %
05.04.2020 17:04 20,8 C 22,8 C 21,1 C 36 % 1019,2 hPa 0,0 l/m 2 min 0 min 515 W/m 35,4 km/h (5 Bft) 97,87 %
05.04.2020 17:06 20,8 C 22,8 C 21,1 C 36 % 1019,2 hPa 0,0 l/m 2 min 0 min 511 W/m 22,5 km/h (4 Bft) 95,74 %
05.04.2020 17:08 20,8 C 23,3 C 21,7 C 36 % 1019,2 hPa 0,0 l/m 2 min 0 min 505 W/m 19,3 km/h (3 Bft) 97,83 %
05.04.2020 17:10 20,8 C 22,8 C 22,2 C 36 % 1019,1 hPa 0,0 l/m 2 min 0 min 499 W/m 25,7 km/h (4 Bft) 97,87 %
05.04.2020 17:12 20,8 C 22,8 C 22,2 C 36 % 1019,2 hPa 0,0 l/m 2 min 0 min 493 W/m 22,5 km/h (4 Bft) 97,87 %
05.04.2020 17:14 20,8 C 22,8 C 23,3 C 36 % 1019,2 hPa 0,0 l/m 2 min 0 min 487 W/m 25,7 km/h (4 Bft) 100,00 %
05.04.2020 17:16 20,8 C 22,8 C 23,9 C 36 % 1019,1 hPa 0,0 l/m 2 min 0 min 481 W/m 25,7 km/h (4 Bft) 100,00 %
05.04.2020 17:18 20,8 C 22,8 C 23,9 C 36 % 1019,1 hPa 0,0 l/m 2 min 0 min 475 W/m 25,7 km/h (4 Bft) 100,00 %
05.04.2020 17:20 20,8 C 22,8 C 23,3 C 36 % 1019,0 hPa 0,0 l/m 2 min 0 min 470 W/m 25,7 km/h (4 Bft) 100,00 %
05.04.2020 17:22 20,8 C 22,8 C 23,9 C 36 % 1019,0 hPa 0,0 l/m 2 min 0 min 464 W/m 29,0 km/h (5 Bft) 100,00 %
05.04.2020 17:24 20,8 C 22,2 C 23,3 C 36 % 1019,0 hPa 0,0 l/m 2 min 0 min 461 W/m 25,7 km/h (4 Bft) 100,00 %
05.04.2020 17:26 20,8 C 22,2 C 23,3 C 36 % 1019,0 hPa 0,0 l/m 2 min 0 min 455 W/m 32,2 km/h (5 Bft) 100,00 %
05.04.2020 17:28 20,7 C 22,8 C 22,8 C 36 % 1018,9 hPa 0,0 l/m 2 min 0 min 449 W/m 22,5 km/h (4 Bft) 100,00 %
05.04.2020 17:30 20,8 C 22,8 C 21,1 C 36 % 1018,9 hPa 0,0 l/m 2 min 0 min 442 W/m 19,3 km/h (3 Bft) 100,00 %
05.04.2020 17:32 20,8 C 22,8 C 20,6 C 36 % 1018,9 hPa 0,0 l/m 2 min 0 min 437 W/m 25,7 km/h (4 Bft) 100,00 %
05.04.2020 17:34 20,8 C 22,8 C 20,0 C 36 % 1018,9 hPa 0,0 l/m 2 min 0 min 432 W/m 29,0 km/h (5 Bft) 100,00 %
05.04.2020 17:36 20,8 C 22,8 C 19,4 C 36 % 1018,8 hPa 0,0 l/m 2 min 0 min 427 W/m 29,0 km/h (5 Bft) 100,00 %
05.04.2020 17:38 20,8 C 22,8 C 18,9 C 36 % 1018,8 hPa 0,0 l/m 2 min 0 min 421 W/m 29,0 km/h (5 Bft) 100,00 %
05.04.2020 17:40 20,8 C 22,2 C 18,9 C 37 % 1018,8 hPa 0,0 l/m 2 min 0 min 414 W/m 25,7 km/h (4 Bft) 97,87 %
05.04.2020 17:42 20,8 C 22,2 C 19,4 C 37 % 1018,9 hPa 0,0 l/m 2 min 0 min 408 W/m 29,0 km/h (5 Bft) 100,00 %
05.04.2020 17:44 20,8 C 22,2 C 19,4 C 37 % 1018,8 hPa 0,0 l/m 2 min 0 min 402 W/m 22,5 km/h (4 Bft) 100,00 %
05.04.2020 17:46 20,8 C 22,2 C 18,9 C 36 % 1018,8 hPa 0,0 l/m 2 min 0 min 397 W/m 22,5 km/h (4 Bft) 97,87 %
05.04.2020 17:48 20,7 C 21,7 C 18,9 C 36 % 1018,7 hPa 0,0 l/m 2 min 0 min 391 W/m 35,4 km/h (5 Bft) 100,00 %
05.04.2020 17:50 20,7 C 21,7 C 18,9 C 36 % 1018,7 hPa 0,0 l/m 2 min 0 min 383 W/m 29,0 km/h (5 Bft) 100,00 %
05.04.2020 17:52 20,7 C 21,7 C 18,9 C 37 % 1018,7 hPa 0,0 l/m 2 min 0 min 375 W/m 22,5 km/h (4 Bft) 100,00 %
05.04.2020 17:54 20,6 C 21,7 C 18,9 C 37 % 1018,6 hPa 0,0 l/m 2 min 0 min 369 W/m 35,4 km/h (5 Bft) 97,83 %
05.04.2020 17:56 20,6 C 22,2 C 18,9 C 37 % 1018,7 hPa 0,0 l/m 2 min 0 min 363 W/m 22,5 km/h (4 Bft) 100,00 %
05.04.2020 17:58 20,6 C 21,7 C 18,3 C 37 % 1018,6 hPa 0,0 l/m 2 min 0 min 356 W/m 22,5 km/h (4 Bft) 100,00 %
05.04.2020 18:00 20,6 C 21,7 C 18,9 C 37 % 1018,7 hPa 0,0 l/m 2 min 0 min 351 W/m 32,2 km/h (5 Bft) 100,00 %
05.04.2020 18:02 20,5 C 21,7 C 18,3 C 37 % 1018,7 hPa 0,0 l/m 2 min 0 min 346 W/m 35,4 km/h (5 Bft) 100,00 %
05.04.2020 18:04 20,5 C 21,7 C 18,3 C 37 % 1018,7 hPa 0,0 l/m 2 min 0 min 339 W/m 22,5 km/h (4 Bft) 100,00 %
05.04.2020 18:08 20,4 C 21,1 C 18,3 C 37 % 1018,6 hPa 0,0 l/m 4 min 0 min 331 W/m 35,4 km/h (5 Bft) 98,92 %
05.04.2020 18:10 20,3 C 21,1 C 18,3 C 37 % 1018,6 hPa 0,0 l/m 2 min 0 min 322 W/m 38,6 km/h (5 Bft) 100,00 %
05.04.2020 18:12 20,3 C 20,0 C 18,3 C 37 % 1018,6 hPa 0,0 l/m 2 min 0 min 315 W/m 22,5 km/h (4 Bft) 100,00 %
05.04.2020 18:14 20,2 C 19,4 C 18,3 C 37 % 1018,6 hPa 0,0 l/m 2 min 0 min 308 W/m 22,5 km/h (4 Bft) 100,00 %
05.04.2020 18:16 20,2 C 19,4 C 18,3 C 37 % 1018,6 hPa 0,0 l/m 2 min 0 min 269 W/m 25,7 km/h (4 Bft) 100,00 %
05.04.2020 18:18 20,2 C 18,9 C 18,3 C 37 % 1018,6 hPa 0,0 l/m 0 min 0 min 114 W/m 29,0 km/h (5 Bft) 100,00 %
05.04.2020 18:20 20,1 C 18,9 C 18,3 C 37 % 1018,6 hPa 0,0 l/m 0 min 0 min 53 W/m 35,4 km/h (5 Bft) 100,00 %
05.04.2020 18:22 20,1 C 18,9 C 18,3 C 38 % 1018,6 hPa 0,0 l/m 0 min 0 min 50 W/m 29,0 km/h (5 Bft) 100,00 %
05.04.2020 18:24 20,0 C 18,9 C 18,3 C 38 % 1018,6 hPa 0,0 l/m 0 min 0 min 49 W/m 19,3 km/h (3 Bft) 100,00 %
05.04.2020 18:26 19,9 C 18,9 C 18,3 C 38 % 1018,6 hPa 0,0 l/m 0 min 0 min 49 W/m 38,6 km/h (5 Bft) 97,87 %
05.04.2020 18:28 19,9 C 18,9 C 17,8 C 38 % 1018,6 hPa 0,0 l/m 0 min 0 min 48 W/m 35,4 km/h (5 Bft) 100,00 %
05.04.2020 18:30 19,8 C 18,9 C 17,8 C 38 % 1018,6 hPa 0,0 l/m 0 min 0 min 47 W/m 19,3 km/h (3 Bft) 97,83 %
05.04.2020 18:32 19,8 C 18,9 C 17,8 C 38 % 1018,6 hPa 0,0 l/m 0 min 0 min 47 W/m 38,6 km/h (5 Bft) 97,87 %
05.04.2020 18:34 19,8 C 18,9 C 17,8 C 38 % 1018,6 hPa 0,0 l/m 0 min 0 min 46 W/m 25,7 km/h (4 Bft) 97,87 %
05.04.2020 18:36 19,7 C 18,9 C 17,8 C 39 % 1018,6 hPa 0,0 l/m 0 min 0 min 45 W/m 19,3 km/h (3 Bft) 97,87 %
05.04.2020 18:38 19,7 C 18,9 C 17,8 C 39 % 1018,6 hPa 0,0 l/m 0 min 0 min 44 W/m 19,3 km/h (3 Bft) 97,87 %
05.04.2020 18:40 19,7 C 18,9 C 17,8 C 39 % 1018,6 hPa 0,0 l/m 0 min 0 min 44 W/m 22,5 km/h (4 Bft) 95,65 %
05.04.2020 18:42 19,7 C 18,9 C 17,8 C 39 % 1018,6 hPa 0,0 l/m 0 min 0 min 42 W/m 19,3 km/h (3 Bft) 95,74 %
05.04.2020 18:44 19,6 C 18,9 C 17,8 C 39 % 1018,6 hPa 0,0 l/m 0 min 0 min 42 W/m 25,7 km/h (4 Bft) 93,62 %
05.04.2020 18:46 19,6 C 18,9 C 17,8 C 39 % 1018,6 hPa 0,0 l/m 0 min 0 min 41 W/m 16,1 km/h (3 Bft) 95,74 %
05.04.2020 18:48 19,6 C 18,9 C 17,8 C 39 % 1018,6 hPa 0,0 l/m 0 min 0 min 40 W/m 25,7 km/h (4 Bft) 95,74 %
05.04.2020 18:50 19,6 C 18,9 C 17,8 C 39 % 1018,6 hPa 0,0 l/m 0 min 0 min 40 W/m 22,5 km/h (4 Bft) 95,74 %
05.04.2020 18:52 19,5 C 18,3 C 17,8 C 39 % 1018,5 hPa 0,0 l/m 0 min 0 min 39 W/m 25,7 km/h (4 Bft) 95,65 %
05.04.2020 18:54 19,5 C 18,3 C 17,8 C 39 % 1018,6 hPa 0,0 l/m 0 min 0 min 39 W/m 29,0 km/h (5 Bft) 95,74 %
05.04.2020 18:56 19,4 C 18,3 C 17,8 C 39 % 1018,6 hPa 0,0 l/m 0 min 0 min 39 W/m 29,0 km/h (5 Bft) 95,74 %
05.04.2020 18:58 19,4 C 18,3 C 17,8 C 39 % 1018,6 hPa 0,0 l/m 0 min 0 min 38 W/m 29,0 km/h (5 Bft) 95,74 %
05.04.2020 19:00 19,4 C 18,3 C 17,8 C 39 % 1018,5 hPa 0,0 l/m 0 min 0 min 37 W/m 22,5 km/h (4 Bft) 95,74 %
05.04.2020 19:02 19,3 C 18,3 C 17,8 C 39 % 1018,6 hPa 0,0 l/m 0 min 0 min 37 W/m 19,3 km/h (3 Bft) 95,74 %
05.04.2020 19:04 19,3 C 18,3 C 17,8 C 39 % 1018,6 hPa 0,0 l/m 0 min 0 min 35 W/m 25,7 km/h (4 Bft) 97,83 %
05.04.2020 19:06 19,3 C 18,3 C 17,2 C 40 % 1018,6 hPa 0,0 l/m 0 min 0 min 35 W/m 16,1 km/h (3 Bft) 95,74 %
05.04.2020 19:08 19,3 C 18,3 C 17,2 C 40 % 1018,5 hPa 0,0 l/m 0 min 0 min 35 W/m 22,5 km/h (4 Bft) 91,49 %
05.04.2020 19:10 19,3 C 18,3 C 17,2 C 40 % 1018,6 hPa 0,0 l/m 0 min 0 min 33 W/m 22,5 km/h (4 Bft) 93,62 %
05.04.2020 19:12 19,2 C 18,3 C 17,2 C 40 % 1018,5 hPa 0,0 l/m 0 min 0 min 33 W/m 25,7 km/h (4 Bft) 93,62 %
05.04.2020 19:14 19,2 C 18,3 C 17,2 C 40 % 1018,5 hPa 0,0 l/m 0 min 0 min 32 W/m 25,7 km/h (4 Bft) 91,49 %
05.04.2020 19:16 19,2 C 18,3 C 17,2 C 40 % 1018,6 hPa 0,0 l/m 0 min 0 min 32 W/m 19,3 km/h (3 Bft) 93,48 %
05.04.2020 19:18 19,2 C 17,8 C 17,2 C 40 % 1018,5 hPa 0,0 l/m 0 min 0 min 31 W/m 22,5 km/h (4 Bft) 93,62 %
05.04.2020 19:20 19,1 C 17,8 C 17,2 C 40 % 1018,6 hPa 0,0 l/m 0 min 0 min 30 W/m 16,1 km/h (3 Bft) 95,74 %
05.04.2020 19:22 19,1 C 17,8 C 17,2 C 40 % 1018,6 hPa 0,0 l/m 0 min 0 min 29 W/m 22,5 km/h (4 Bft) 95,74 %
05.04.2020 19:24 19,1 C 17,8 C 17,2 C 40 % 1018,5 hPa 0,0 l/m 0 min 0 min 28 W/m 22,5 km/h (4 Bft) 93,62 %
05.04.2020 19:26 19,0 C 17,8 C 17,2 C 40 % 1018,5 hPa 0,0 l/m 0 min 0 min 28 W/m 22,5 km/h (4 Bft) 97,87 %
05.04.2020 19:28 18,9 C 17,8 C 16,7 C 40 % 1018,6 hPa 0,0 l/m 0 min 0 min 26 W/m 16,1 km/h (3 Bft) 97,83 %
05.04.2020 19:30 18,9 C 17,8 C 16,7 C 40 % 1018,5 hPa 0,0 l/m 0 min 0 min 26 W/m 22,5 km/h (4 Bft) 97,87 %
05.04.2020 19:32 18,8 C 17,2 C 16,7 C 41 % 1018,5 hPa 0,0 l/m 0 min 0 min 25 W/m 19,3 km/h (3 Bft) 97,87 %
05.04.2020 19:34 18,8 C 17,2 C 16,7 C 41 % 1018,6 hPa 0,0 l/m 0 min 0 min 25 W/m 19,3 km/h (3 Bft) 97,87 %
05.04.2020 19:36 18,8 C 17,2 C 16,7 C 41 % 1018,5 hPa 0,0 l/m 0 min 0 min 23 W/m 29,0 km/h (5 Bft) 97,87 %
05.04.2020 19:38 18,7 C 17,2 C 16,7 C 41 % 1018,5 hPa 0,0 l/m 0 min 0 min 22 W/m 22,5 km/h (4 Bft) 97,87 %
05.04.2020 19:40 18,7 C 17,2 C 16,7 C 41 % 1018,6 hPa 0,0 l/m 0 min 0 min 21 W/m 22,5 km/h (4 Bft) 97,83 %
05.04.2020 19:42 18,6 C 17,2 C 16,7 C 41 % 1018,5 hPa 0,0 l/m 0 min 0 min 21 W/m 22,5 km/h (4 Bft) 95,74 %
05.04.2020 19:44 18,5 C 16,7 C 16,1 C 42 % 1018,5 hPa 0,0 l/m 0 min 0 min 19 W/m 19,3 km/h (3 Bft) 97,62 %
05.04.2020 19:46 18,4 C 16,7 C 16,1 C 42 % 1018,5 hPa 0,0 l/m 0 min 0 min 19 W/m 25,7 km/h (4 Bft) 97,87 %
05.04.2020 19:48 18,4 C 16,7 C 16,1 C 42 % 1018,5 hPa 0,0 l/m 0 min 0 min 18 W/m 12,9 km/h (3 Bft) 95,74 %
05.04.2020 19:50 18,3 C 16,7 C 16,1 C 42 % 1018,4 hPa 0,0 l/m 0 min 0 min 17 W/m 6,4 km/h (2 Bft) 97,87 %
05.04.2020 19:52 18,3 C 16,7 C 15,6 C 42 % 1018,4 hPa 0,0 l/m 0 min 0 min 16 W/m 12,9 km/h (3 Bft) 97,87 %
05.04.2020 19:54 18,2 C 16,7 C 15,6 C 42 % 1018,4 hPa 0,0 l/m 0 min 0 min 15 W/m 29,0 km/h (5 Bft) 100,00 %
05.04.2020 19:56 18,2 C 16,7 C 15,6 C 42 % 1018,5 hPa 0,0 l/m 0 min 0 min 14 W/m 25,7 km/h (4 Bft) 100,00 %
05.04.2020 19:58 18,1 C 16,7 C 15,6 C 42 % 1018,5 hPa 0,0 l/m 0 min 0 min 12 W/m 16,1 km/h (3 Bft) 100,00 %
05.04.2020 20:00 18,1 C 16,7 C 15,6 C 42 % 1018,5 hPa 0,0 l/m 0 min 0 min 12 W/m 12,9 km/h (3 Bft) 100,00 %
05.04.2020 20:02 17,9 C 16,1 C 15,6 C 43 % 1018,5 hPa 0,0 l/m 0 min 0 min 11 W/m 16,1 km/h (3 Bft) 100,00 %
05.04.2020 20:04 17,9 C 16,1 C 15,6 C 43 % 1018,5 hPa 0,0 l/m 0 min 0 min 11 W/m 19,3 km/h (3 Bft) 100,00 %
05.04.2020 20:06 17,8 C 16,1 C 15,6 C 43 % 1018,5 hPa 0,0 l/m 0 min 0 min 9 W/m 16,1 km/h (3 Bft) 100,00 %
05.04.2020 20:08 17,8 C 16,1 C 15,6 C 43 % 1018,5 hPa 0,0 l/m 0 min 0 min 8 W/m 6,4 km/h (2 Bft) 100,00 %
05.04.2020 20:10 17,7 C 15,6 C 15,0 C 44 % 1018,5 hPa 0,0 l/m 0 min 0 min 7 W/m 12,9 km/h (3 Bft) 100,00 %
05.04.2020 20:12 17,6 C 15,6 C 15,0 C 44 % 1018,5 hPa 0,0 l/m 0 min 0 min 6 W/m 19,3 km/h (3 Bft) 100,00 %
05.04.2020 20:14 17,6 C 15,6 C 15,0 C 44 % 1018,6 hPa 0,0 l/m 0 min 0 min 5 W/m 16,1 km/h (3 Bft) 97,87 %
05.04.2020 20:16 17,4 C 15,6 C 15,0 C 44 % 1018,6 hPa 0,0 l/m 0 min 0 min 5 W/m 6,4 km/h (2 Bft) 100,00 %
05.04.2020 20:18 17,4 C 15,6 C 15,0 C 44 % 1018,6 hPa 0,0 l/m 0 min 0 min 0 W/m 3,2 km/h (1 Bft) 100,00 %
05.04.2020 20:20 17,3 C 15,6 C 15,0 C 44 % 1018,6 hPa 0,0 l/m 0 min 0 min 0 W/m 12,9 km/h (3 Bft) 100,00 %
05.04.2020 20:22 17,3 C 15,6 C 15,0 C 44 % 1018,6 hPa 0,0 l/m 0 min 0 min 0 W/m 16,1 km/h (3 Bft) 100,00 %
05.04.2020 20:24 17,2 C 15,6 C 14,4 C 44 % 1018,6 hPa 0,0 l/m 0 min 0 min 0 W/m 12,9 km/h (3 Bft) 100,00 %
05.04.2020 20:26 17,2 C 15,6 C 14,4 C 45 % 1018,6 hPa 0,0 l/m 0 min 0 min 0 W/m 16,1 km/h (3 Bft) 100,00 %
05.04.2020 20:28 17,1 C 15,6 C 14,4 C 45 % 1018,6 hPa 0,0 l/m 0 min 0 min 0 W/m 12,9 km/h (3 Bft) 100,00 %
05.04.2020 20:30 17,1 C 15,6 C 14,4 C 45 % 1018,6 hPa 0,0 l/m 0 min 0 min 0 W/m 12,9 km/h (3 Bft) 100,00 %
05.04.2020 20:32 17,0 C 15,0 C 14,4 C 45 % 1018,6 hPa 0,0 l/m 0 min 0 min 0 W/m 19,3 km/h (3 Bft) 100,00 %
05.04.2020 20:34 16,9 C 15,0 C 14,4 C 45 % 1018,6 hPa 0,0 l/m 0 min 0 min 0 W/m 12,9 km/h (3 Bft) 100,00 %
05.04.2020 20:36 16,8 C 15,0 C 13,9 C 45 % 1018,6 hPa 0,0 l/m 0 min 0 min 0 W/m 6,4 km/h (2 Bft) 97,87 %
05.04.2020 20:38 16,8 C 15,0 C 13,9 C 45 % 1018,6 hPa 0,0 l/m 0 min 0 min 0 W/m 12,9 km/h (3 Bft) 100,00 %
05.04.2020 20:40 16,7 C 15,0 C 13,9 C 45 % 1018,7 hPa 0,0 l/m 0 min 0 min 0 W/m 6,4 km/h (2 Bft) 100,00 %
05.04.2020 20:42 16,6 C 15,0 C 13,9 C 45 % 1018,7 hPa 0,0 l/m 0 min 0 min 0 W/m 16,1 km/h (3 Bft) 100,00 %
05.04.2020 20:44 16,6 C 15,0 C 13,9 C 45 % 1018,7 hPa 0,0 l/m 0 min 0 min 0 W/m 0,0 km/h (0 Bft) 100,00 %
05.04.2020 20:46 16,6 C 15,0 C 13,9 C 46 % 1018,7 hPa 0,0 l/m 0 min 0 min 0 W/m 12,9 km/h (3 Bft) 97,87 %
05.04.2020 20:48 16,5 C 15,0 C 13,9 C 46 % 1018,7 hPa 0,0 l/m 0 min 0 min 0 W/m 12,9 km/h (3 Bft) 100,00 %
05.04.2020 20:50 16,4 C 15,0 C 13,9 C 46 % 1018,7 hPa 0,0 l/m 0 min 0 min 0 W/m 0,0 km/h (0 Bft) 100,00 %
05.04.2020 20:52 16,4 C 15,0 C 13,9 C 46 % 1018,7 hPa 0,0 l/m 0 min 0 min 0 W/m 3,2 km/h (1 Bft) 100,00 %
05.04.2020 20:54 16,3 C 15,0 C 13,9 C 46 % 1018,7 hPa 0,0 l/m 0 min 0 min 0 W/m 3,2 km/h (1 Bft) 97,83 %
05.04.2020 20:56 16,3 C 15,0 C 13,9 C 46 % 1018,7 hPa 0,0 l/m 0 min 0 min 0 W/m 16,1 km/h (3 Bft) 100,00 %
05.04.2020 20:58 16,2 C 15,0 C 13,9 C 46 % 1018,7 hPa 0,0 l/m 0 min 0 min 0 W/m 12,9 km/h (3 Bft) 100,00 %
05.04.2020 21:00 16,2 C 15,0 C 13,9 C 46 % 1018,7 hPa 0,0 l/m 0 min 0 min 0 W/m 6,4 km/h (2 Bft) 100,00 %
05.04.2020 21:02 16,2 C 15,0 C 13,9 C 46 % 1018,7 hPa 0,0 l/m 0 min 0 min 0 W/m 6,4 km/h (2 Bft) 95,74 %
05.04.2020 21:04 16,1 C 15,0 C 13,9 C 46 % 1018,7 hPa 0,0 l/m 0 min 0 min 0 W/m 6,4 km/h (2 Bft) 97,87 %
05.04.2020 21:06 16,1 C 15,0 C 13,9 C 46 % 1018,7 hPa 0,0 l/m 0 min 0 min 0 W/m 19,3 km/h (3 Bft) 95,65 %
05.04.2020 21:08 16,1 C 14,4 C 13,9 C 46 % 1018,7 hPa 0,0 l/m 0 min 0 min 0 W/m 12,9 km/h (3 Bft) 97,87 %
05.04.2020 21:10 16,0 C 15,0 C 13,9 C 46 % 1018,7 hPa 0,0 l/m 0 min 0 min 0 W/m 16,1 km/h (3 Bft) 97,87 %
05.04.2020 21:12 16,0 C 14,4 C 13,9 C 46 % 1018,7 hPa 0,0 l/m 0 min 0 min 0 W/m 16,1 km/h (3 Bft) 97,87 %
05.04.2020 21:14 15,9 C 14,4 C 13,9 C 46 % 1018,7 hPa 0,0 l/m 0 min 0 min 0 W/m 12,9 km/h (3 Bft) 97,87 %
05.04.2020 21:16 15,9 C 14,4 C 13,9 C 46 % 1018,6 hPa 0,0 l/m 0 min 0 min 0 W/m 16,1 km/h (3 Bft) 97,83 %
05.04.2020 21:18 15,9 C 14,4 C 13,9 C 46 % 1018,6 hPa 0,0 l/m 0 min 0 min 0 W/m 6,4 km/h (2 Bft) 97,87 %
05.04.2020 21:20 15,8 C 14,4 C 13,9 C 46 % 1018,7 hPa 0,0 l/m 0 min 0 min 0 W/m 3,2 km/h (1 Bft) 97,87 %
05.04.2020 21:22 15,8 C 14,4 C 13,9 C 47 % 1018,6 hPa 0,0 l/m 0 min 0 min 0 W/m 3,2 km/h (1 Bft) 95,74 %
05.04.2020 21:24 15,8 C 14,4 C 13,3 C 47 % 1018,6 hPa 0,0 l/m 0 min 0 min 0 W/m 6,4 km/h (2 Bft) 97,87 %
05.04.2020 21:26 15,7 C 14,4 C 13,3 C 47 % 1018,6 hPa 0,0 l/m 0 min 0 min 0 W/m 12,9 km/h (3 Bft) 97,87 %
05.04.2020 21:28 15,7 C 14,4 C 13,9 C 47 % 1018,6 hPa 0,0 l/m 0 min 0 min 0 W/m 22,5 km/h (4 Bft) 97,83 %
05.04.2020 21:30 15,7 C 14,4 C 13,9 C 47 % 1018,6 hPa 0,0 l/m 0 min 0 min 0 W/m 16,1 km/h (3 Bft) 97,87 %
05.04.2020 21:32 15,7 C 14,4 C 13,9 C 47 % 1018,6 hPa 0,0 l/m 0 min 0 min 0 W/m 12,9 km/h (3 Bft) 97,87 %
05.04.2020 21:34 15,6 C 14,4 C 13,9 C 47 % 1018,6 hPa 0,0 l/m 0 min 0 min 0 W/m 19,3 km/h (3 Bft) 95,74 %
05.04.2020 21:36 15,6 C 14,4 C 13,9 C 47 % 1018,7 hPa 0,0 l/m 0 min 0 min 0 W/m 16,1 km/h (3 Bft) 95,74 %
05.04.2020 21:38 15,6 C 14,4 C 13,9 C 47 % 1018,7 hPa 0,0 l/m 0 min 0 min 0 W/m 12,9 km/h (3 Bft) 97,87 %
05.04.2020 21:40 15,6 C 14,4 C 13,9 C 47 % 1018,7 hPa 0,0 l/m 0 min 0 min 0 W/m 6,4 km/h (2 Bft) 97,83 %
05.04.2020 21:42 15,6 C 14,4 C 13,3 C 47 % 1018,7 hPa 0,0 l/m 0 min 0 min 0 W/m 16,1 km/h (3 Bft) 97,87 %
05.04.2020 21:44 15,6 C 14,4 C 13,3 C 47 % 1018,7 hPa 0,0 l/m 0 min 0 min 0 W/m 16,1 km/h (3 Bft) 100,00 %
05.04.2020 21:46 15,5 C 14,4 C 13,3 C 47 % 1018,7 hPa 0,0 l/m 0 min 0 min 0 W/m 12,9 km/h (3 Bft) 97,87 %
05.04.2020 21:48 15,5 C 14,4 C 13,3 C 47 % 1018,7 hPa 0,0 l/m 0 min 0 min 0 W/m 6,4 km/h (2 Bft) 100,00 %
05.04.2020 21:50 15,4 C 13,9 C 13,3 C 47 % 1018,7 hPa 0,0 l/m 0 min 0 min 0 W/m 6,4 km/h (2 Bft) 100,00 %
05.04.2020 21:52 15,4 C 13,9 C 13,3 C 47 % 1018,7 hPa 0,0 l/m 0 min 0 min 0 W/m 9,7 km/h (2 Bft) 100,00 %
05.04.2020 21:54 15,4 C 13,9 C 13,3 C 47 % 1018,7 hPa 0,0 l/m 0 min 0 min 0 W/m 6,4 km/h (2 Bft) 100,00 %
05.04.2020 21:56 15,3 C 13,9 C 12,8 C 47 % 1018,7 hPa 0,0 l/m 0 min 0 min 0 W/m 3,2 km/h (1 Bft) 97,87 %
05.04.2020 21:58 15,3 C 13,9 C 12,8 C 47 % 1018,7 hPa 0,0 l/m 0 min 0 min 0 W/m 19,3 km/h (3 Bft) 100,00 %
05.04.2020 22:00 15,3 C 13,9 C 13,3 C 47 % 1018,7 hPa 0,0 l/m 0 min 0 min 0 W/m 16,1 km/h (3 Bft) 100,00 %
05.04.2020 22:02 15,2 C 13,9 C 13,3 C 47 % 1018,7 hPa 0,0 l/m 0 min 0 min 0 W/m 16,1 km/h (3 Bft) 95,74 %
05.04.2020 22:04 15,2 C 13,9 C 12,8 C 47 % 1018,7 hPa 0,0 l/m 0 min 0 min 0 W/m 12,9 km/h (3 Bft) 100,00 %
05.04.2020 22:06 15,2 C 13,9 C 12,8 C 48 % 1018,7 hPa 0,0 l/m 0 min 0 min 0 W/m 12,9 km/h (3 Bft) 97,87 %
05.04.2020 22:08 15,1 C 13,9 C 13,3 C 48 % 1018,7 hPa 0,0 l/m 0 min 0 min 0 W/m 25,7 km/h (4 Bft) 95,74 %
05.04.2020 22:10 15,1 C 13,9 C 13,3 C 48 % 1018,7 hPa 0,0 l/m 0 min 0 min 0 W/m 19,3 km/h (3 Bft) 95,74 %
05.04.2020 22:12 15,1 C 13,9 C 13,3 C 48 % 1018,7 hPa 0,0 l/m 0 min 0 min 0 W/m 12,9 km/h (3 Bft) 95,74 %
05.04.2020 22:14 15,1 C 13,9 C 13,3 C 48 % 1018,7 hPa 0,0 l/m 0 min 0 min 0 W/m 19,3 km/h (3 Bft) 95,74 %
05.04.2020 22:16 15,1 C 13,9 C 12,8 C 48 % 1018,7 hPa 0,0 l/m 0 min 0 min 0 W/m 16,1 km/h (3 Bft) 91,30 %
05.04.2020 22:18 15,0 C 13,9 C 12,8 C 48 % 1018,7 hPa 0,0 l/m 0 min 0 min 0 W/m 19,3 km/h (3 Bft) 93,62 %
05.04.2020 22:20 15,0 C 13,9 C 12,8 C 48 % 1018,7 hPa 0,0 l/m 0 min 0 min 0 W/m 12,9 km/h (3 Bft) 91,49 %
05.04.2020 22:22 14,9 C 13,3 C 12,8 C 48 % 1018,7 hPa 0,0 l/m 0 min 0 min 0 W/m 16,1 km/h (3 Bft) 93,62 %
05.04.2020 22:24 14,9 C 13,3 C 12,8 C 48 % 1018,7 hPa 0,0 l/m 0 min 0 min 0 W/m 3,2 km/h (1 Bft) 93,62 %
05.04.2020 22:26 14,9 C 13,3 C 12,2 C 48 % 1018,6 hPa 0,0 l/m 0 min 0 min 0 W/m 12,9 km/h (3 Bft) 95,65 %
05.04.2020 22:28 14,8 C 13,3 C 12,2 C 48 % 1018,6 hPa 0,0 l/m 0 min 0 min 0 W/m 6,4 km/h (2 Bft) 95,74 %
05.04.2020 22:30 14,8 C 13,3 C 12,2 C 48 % 1018,6 hPa 0,0 l/m 0 min 0 min 0 W/m 12,9 km/h (3 Bft) 95,74 %
05.04.2020 22:32 14,8 C 13,3 C 12,2 C 49 % 1018,5 hPa 0,0 l/m 0 min 0 min 0 W/m 12,9 km/h (3 Bft) 95,74 %
05.04.2020 22:34 14,7 C 13,3 C 12,2 C 49 % 1018,6 hPa 0,0 l/m 0 min 0 min 0 W/m 0,0 km/h (0 Bft) 95,74 %
05.04.2020 22:36 14,7 C 12,8 C 12,2 C 49 % 1018,6 hPa 0,0 l/m 0 min 0 min 0 W/m 0,0 km/h (0 Bft) 95,74 %
05.04.2020 22:38 14,6 C 12,8 C 12,2 C 49 % 1018,6 hPa 0,0 l/m 0 min 0 min 0 W/m 0,0 km/h (0 Bft) 93,48 %
05.04.2020 22:40 14,6 C 12,8 C 12,2 C 49 % 1018,6 hPa 0,0 l/m 0 min 0 min 0 W/m 0,0 km/h (0 Bft) 95,74 %
05.04.2020 22:42 14,6 C 12,8 C 12,2 C 49 % 1018,6 hPa 0,0 l/m 0 min 0 min 0 W/m 6,4 km/h (2 Bft) 95,74 %
05.04.2020 22:44 14,5 C 12,8 C 11,7 C 49 % 1018,6 hPa 0,0 l/m 0 min 0 min 0 W/m 3,2 km/h (1 Bft) 95,74 %
05.04.2020 22:46 14,4 C 12,8 C 11,7 C 50 % 1018,5 hPa 0,0 l/m 0 min 0 min 0 W/m 0,0 km/h (0 Bft) 95,74 %
05.04.2020 22:48 14,3 C 12,8 C 11,7 C 50 % 1018,5 hPa 0,0 l/m 0 min 0 min 0 W/m 3,2 km/h (1 Bft) 91,49 %
05.04.2020 22:50 14,3 C 12,8 C 11,7 C 50 % 1018,5 hPa 0,0 l/m 0 min 0 min 0 W/m 3,2 km/h (1 Bft) 95,65 %
05.04.2020 22:52 14,3 C 12,8 C 12,2 C 50 % 1018,5 hPa 0,0 l/m 0 min 0 min 0 W/m 16,1 km/h (3 Bft) 95,74 %
05.04.2020 22:54 14,3 C 12,8 C 12,2 C 50 % 1018,5 hPa 0,0 l/m 0 min 0 min 0 W/m 0,0 km/h (0 Bft) 97,87 %
05.04.2020 22:56 14,3 C 12,8 C 12,2 C 50 % 1018,5 hPa 0,0 l/m 0 min 0 min 0 W/m 6,4 km/h (2 Bft) 97,87 %
05.04.2020 22:58 14,2 C 12,8 C 12,2 C 50 % 1018,5 hPa 0,0 l/m 0 min 0 min 0 W/m 16,1 km/h (3 Bft) 97,87 %
05.04.2020 23:00 14,2 C 12,8 C 12,2 C 50 % 1018,4 hPa 0,0 l/m 0 min 0 min 0 W/m 12,9 km/h (3 Bft) 95,74 %
05.04.2020 23:02 14,1 C 12,8 C 12,2 C 50 % 1018,4 hPa 0,0 l/m 0 min 0 min 0 W/m 19,3 km/h (3 Bft) 93,48 %
05.04.2020 23:04 14,1 C 12,8 C 12,2 C 50 % 1018,4 hPa 0,0 l/m 0 min 0 min 0 W/m 16,1 km/h (3 Bft) 95,74 %
05.04.2020 23:06 14,1 C 13,3 C 12,2 C 50 % 1018,4 hPa 0,0 l/m 0 min 0 min 0 W/m 12,9 km/h (3 Bft) 91,49 %
05.04.2020 23:08 14,1 C 13,3 C 12,2 C 50 % 1018,4 hPa 0,0 l/m 0 min 0 min 0 W/m 12,9 km/h (3 Bft) 95,74 %
05.04.2020 23:10 14,1 C 13,3 C 12,2 C 50 % 1018,4 hPa 0,0 l/m 0 min 0 min 0 W/m 12,9 km/h (3 Bft) 97,87 %
05.04.2020 23:12 14,1 C 12,8 C 12,2 C 50 % 1018,4 hPa 0,0 l/m 0 min 0 min 0 W/m 6,4 km/h (2 Bft) 93,62 %
05.04.2020 23:14 14,1 C 12,8 C 12,2 C 50 % 1018,4 hPa 0,0 l/m 0 min 0 min 0 W/m 19,3 km/h (3 Bft) 97,83 %
05.04.2020 23:16 14,1 C 12,8 C 12,2 C 50 % 1018,4 hPa 0,0 l/m 0 min 0 min 0 W/m 16,1 km/h (3 Bft) 95,74 %
05.04.2020 23:18 14,1 C 12,8 C 12,2 C 51 % 1018,4 hPa 0,0 l/m 0 min 0 min 0 W/m 12,9 km/h (3 Bft) 100,00 %
05.04.2020 23:20 14,0 C 12,8 C 12,2 C 51 % 1018,4 hPa 0,0 l/m 0 min 0 min 0 W/m 16,1 km/h (3 Bft) 100,00 %
05.04.2020 23:22 14,0 C 12,8 C 12,2 C 51 % 1018,4 hPa 0,0 l/m 0 min 0 min 0 W/m 12,9 km/h (3 Bft) 100,00 %
05.04.2020 23:24 14,0 C 12,8 C 12,2 C 51 % 1018,4 hPa 0,0 l/m 0 min 0 min 0 W/m 12,9 km/h (3 Bft) 100,00 %
05.04.2020 23:26 13,9 C 12,8 C 11,7 C 51 % 1018,4 hPa 0,0 l/m 0 min 0 min 0 W/m 6,4 km/h (2 Bft) 93,62 %
05.04.2020 23:28 13,9 C 12,8 C 11,7 C 51 % 1018,4 hPa 0,0 l/m 0 min 0 min 0 W/m 12,9 km/h (3 Bft) 100,00 %
05.04.2020 23:30 13,9 C 12,2 C 11,7 C 51 % 1018,4 hPa 0,0 l/m 0 min 0 min 0 W/m 3,2 km/h (1 Bft) 97,87 %
05.04.2020 23:32 13,9 C 12,2 C 11,1 C 51 % 1018,3 hPa 0,0 l/m 0 min 0 min 0 W/m 3,2 km/h (1 Bft) 97,87 %
05.04.2020 23:34 13,8 C 11,7 C 11,1 C 51 % 1018,4 hPa 0,0 l/m 0 min 0 min 0 W/m 0,0 km/h (0 Bft) 95,74 %
05.04.2020 23:36 13,8 C 11,7 C 10,6 C 52 % 1018,3 hPa 0,0 l/m 0 min 0 min 0 W/m 3,2 km/h (1 Bft) 93,48 %
05.04.2020 23:38 13,7 C 11,7 C 10,6 C 52 % 1018,3 hPa 0,0 l/m 0 min 0 min 0 W/m 3,2 km/h (1 Bft) 95,74 %
05.04.2020 23:40 13,7 C 11,7 C 10,6 C 52 % 1018,3 hPa 0,0 l/m 0 min 0 min 0 W/m 12,9 km/h (3 Bft) 95,74 %
05.04.2020 23:42 13,6 C 11,7 C 10,6 C 53 % 1018,3 hPa 0,0 l/m 0 min 0 min 0 W/m 0,0 km/h (0 Bft) 97,87 %
05.04.2020 23:44 13,5 C 11,7 C 10,6 C 53 % 1018,3 hPa 0,0 l/m 0 min 0 min 0 W/m 6,4 km/h (2 Bft) 95,74 %
05.04.2020 23:46 13,4 C 11,7 C 10,6 C 53 % 1018,2 hPa 0,0 l/m 0 min 0 min 0 W/m 12,9 km/h (3 Bft) 95,74 %
05.04.2020 23:48 13,4 C 11,7 C 11,1 C 53 % 1018,2 hPa 0,0 l/m 0 min 0 min 0 W/m 6,4 km/h (2 Bft) 97,83 %
05.04.2020 23:50 13,3 C 12,2 C 11,1 C 53 % 1018,2 hPa 0,0 l/m 0 min 0 min 0 W/m 19,3 km/h (3 Bft) 95,74 %
05.04.2020 23:52 13,3 C 12,2 C 11,1 C 53 % 1018,2 hPa 0,0 l/m 0 min 0 min 0 W/m 19,3 km/h (3 Bft) 97,87 %
05.04.2020 23:54 13,2 C 12,2 C 11,7 C 53 % 1018,2 hPa 0,0 l/m 0 min 0 min 0 W/m 19,3 km/h (3 Bft) 97,87 %
05.04.2020 23:56 13,2 C 12,2 C 11,7 C 53 % 1018,2 hPa 0,0 l/m 0 min 0 min 0 W/m 16,1 km/h (3 Bft) 95,74 %
05.04.2020 23:58 13,2 C 12,2 C 11,7 C 53 % 1018,2 hPa 0,0 l/m 0 min 0 min 0 W/m 16,1 km/h (3 Bft) 97,87 %
_ Min-Zeit 05:56 00:34 00:52 15:46 23:46 - - - - 00:00 05:42
Minimum _ 5,1 C 3,9 C 2,2 C 35 % 1018,2 hPa - - - - 0,0 km/h (0 Bft) 53,33 %
_ Max-Zeit 16:58 15:16 14:16 06:00 00:40 00:00 12:08 00:00 13:46 12:50 00:10
Maximum _ 20,9 C 23,9 C 26,1 C 79 % 1024,4 hPa 0,0 l/m 4 min 0 min 818 W/m 67,6 km/h
O-SO (8 Bft)
100,00 %
Durchschnitt _ 12,9 C 13,3 C 11,9 C 57 % 1021,8 hPa #0,0 l/m #9:00 h #0 min. 439 W/m 17,0 km/h (3 Bft) 97,24 %
© 2020 W. Hausmann